DL9MFL-6 Weather Reports


time (UTC)temp
C
wind
direction
speed
KPH
gust
KPH
rain 1hr
cm
rain 24hr
cm
rain mn
cm
humidity
%
barometer
mb
20260510100129 19 82 3.2 12.9 0.00 0.00 0.00 57 1007.9
20260510100029 19 88 3.2 12.9 0.00 0.00 0.00 55 1007.9
20260510095934 19 54 3.2 9.7 0.00 0.00 0.00 58 1007.9
20260510095928 19 55 3.2 9.7 0.00 0.00 0.00 58 1007.9
20260510095828 19 76 3.2 9.7 0.00 0.00 0.00 57 1007.9
20260510095728 19 119 3.2 9.7 0.00 0.00 0.00 57 1007.9
20260510095629 19 69 3.2 11.3 0.00 0.00 0.00 59 1007.9
20260510095528 19 65 3.2 11.3 0.00 0.00 0.00 57 1007.9
20260510095429 19 96 3.2 12.9 0.00 0.00 0.00 58 1007.9
20260510095329 19 99 3.2 12.9 0.00 0.00 0.00 58 1008.0
20260510095229 19 85 3.2 12.9 0.00 0.00 0.00 58 1007.9
20260510095128 19 79 3.2 12.9 0.00 0.00 0.00 58 1008.0
20260510095026 18 78 3.2 12.9 0.00 0.00 0.00 57 1008.0
20260510094926 18 115 3.2 12.9 0.00 0.00 0.00 58 1008.0
20260510094826 18 102 3.2 12.9 0.00 0.00 0.00 59 1008.0
20260510094725 18 79 3.2 12.9 0.00 0.00 0.00 57 1008.0
20260510094620 18 105 3.2 12.9 0.00 0.00 0.00 58 1008.0
20260510094520 18 102 3.2 12.9 0.00 0.00 0.00 59 1008.0
20260510094430 18 94 3.2 12.9 0.00 0.00 0.00 59 1008.0
20260510094421 18 67 3.2 12.9 0.00 0.00 0.00 59 1008.0
20260510094320 18 90 3.2 12.9 0.00 0.00 0.00 59 1008.0
20260510094219 18 90 3.2 12.9 0.00 0.00 0.00 59 1008.1
20260510094114 18 185 3.2 12.9 0.00 0.00 0.00 58 1008.0
20260510094014 18 128 3.2 12.9 0.00 0.00 0.00 57 1008.0
20260510093929 18 87 3.2 12.9 0.00 0.00 0.00 57 1008.0
20260510093914 18 105 3.2 12.9 0.00 0.00 0.00 56 1008.0
20260510093814 18 82 3.2 12.9 0.00 0.00 0.00 58 1008.0
20260510093714 18 113 3.2 12.9 0.00 0.00 0.00 58 1008.1
20260510093614 18 92 3.2 12.9 0.00 0.00 0.00 58 1008.1
20260510093512 18 96 4.8 12.9 0.00 0.00 0.00 60 1008.1
20260510093428 18 74 4.8 12.9 0.00 0.00 0.00 60 1008.1
20260510093411 18 69 4.8 12.9 0.00 0.00 0.00 59 1008.1
20260510093310 18 82 4.8 12.9 0.00 0.00 0.00 59 1008.0
20260510093210 18 71 4.8 12.9 0.00 0.00 0.00 59 1008.1
20260510093110 18 320 3.2 12.9 0.00 0.00 0.00 59 1008.1
20260510093010 18 92 3.2 12.9 0.00 0.00 0.00 59 1008.1
20260510092930 18 64 3.2 12.9 0.00 0.00 0.00 59 1008.1
20260510092908 18 78 3.2 12.9 0.00 0.00 0.00 59 1008.1
20260510092808 18 90 3.2 12.9 0.00 0.00 0.00 60 1008.1
20260510092708 18 98 3.2 12.9 0.00 0.00 0.00 59 1008.1
20260510092606 18 109 3.2 12.9 0.00 0.00 0.00 60 1008.1
20260510092504 18 107 3.2 12.9 0.00 0.00 0.00 61 1008.1
20260510092428 18 67 3.2 12.9 0.00 0.00 0.00 61 1008.1
20260510092404 18 92 3.2 11.3 0.00 0.00 0.00 60 1008.1
20260510092306 18 80 3.2 11.3 0.00 0.00 0.00 61 1008.2
20260510092204 18 89 3.2 11.3 0.00 0.00 0.00 60 1008.1
20260510092149 18 91 3.2 11.3 0.00 0.00 0.00 59 1008.1
20260510092144 18 92 3.2 11.3 0.00 0.00 0.00 59 1008.2
20260510092140 18 91 3.2 11.3 0.00 0.00 0.00 57 1008.2
20260510091901 18 104 3.2 11.3 0.00 0.00 0.00 59 1008.1
20260510091801 18 92 3.2 11.3 0.00 0.00 0.00 61 1008.1
20260510091701 18 135 3.2 11.3 0.00 0.00 0.00 60 1008.2
20260510091601 18 88 3.2 12.9 0.00 0.00 0.00 62 1008.2
20260510091501 17 57 4.8 12.9 0.00 0.00 0.00 61 1008.2
20260510091429 17 99 4.8 12.9 0.00 0.00 0.00 61 1008.2
20260510091401 17 82 4.8 12.9 0.00 0.00 0.00 61 1008.2
20260510091301 17 87 4.8 12.9 0.00 0.00 0.00 60 1008.2
20260510091201 17 100 4.8 14.5 0.00 0.00 0.00 61 1008.2
20260510091156 17 70 4.8 14.5 0.00 0.00 0.00 59 1008.2
20260510091144 17 121 4.8 14.5 0.00 0.00 0.00 60 1008.2
20260510091140 17 85 4.8 14.5 0.00 0.00 0.00 59 1008.2
20260510090901 17 86 4.8 14.5 0.00 0.00 0.00 59 1008.2
20260510090801 17 102 4.8 14.5 0.00 0.00 0.00 60 1008.2
20260510090701 17 103 4.8 14.5 0.00 0.00 0.00 59 1008.2
20260510090601 17 101 4.8 14.5 0.00 0.00 0.00 59 1008.2
20260510090501 17 82 4.8 14.5 0.00 0.00 0.00 59 1008.2
20260510090429 17 75 4.8 14.5 0.00 0.00 0.00 60 1008.2
20260510090401 17 113 4.8 14.5 0.00 0.00 0.00 60 1008.2
20260510090301 17 84 4.8 14.5 0.00 0.00 0.00 61 1008.2
20260510090201 17 129 4.8 14.5 0.00 0.00 0.00 60 1008.2
20260510090101 17 105 3.2 14.5 0.00 0.00 0.00 60 1008.2
20260510090001 17 93 3.2 14.5 0.00 0.00 0.00 62 1008.2
20260510085929 17 60 4.8 14.5 0.00 0.00 0.00 62 1008.2
20260510085900 17 47 4.8 14.5 0.00 0.00 0.00 61 1008.2
20260510085801 17 78 3.2 14.5 0.00 0.00 0.00 62 1008.2
20260510085701 17 71 3.2 14.5 0.00 0.00 0.00 62 1008.2
20260510085601 17 70 3.2 14.5 0.00 0.00 0.00 61 1008.2
20260510085501 17 94 3.2 12.9 0.00 0.00 0.00 61 1008.3
20260510085429 17 110 3.2 12.9 0.00 0.00 0.00 61 1008.3
20260510085400 17 130 3.2 12.9 0.00 0.00 0.00 61 1008.3
20260510085300 17 121 3.2 12.9 0.00 0.00 0.00 61 1008.2
20260510085200 17 90 3.2 12.9 0.00 0.00 0.00 62 1008.2
20260510085100 17 106 3.2 12.9 0.00 0.00 0.00 61 1008.3
20260510085001 17 110 3.2 12.9 0.00 0.00 0.00 62 1008.3
20260510084929 17 120 3.2 12.9 0.00 0.00 0.00 63 1008.3
20260510084902 17 106 3.2 12.9 0.00 0.00 0.00 64 1008.3
20260510084801 17 121 3.2 12.9 0.00 0.00 0.00 62 1008.2
20260510084701 17 43 3.2 9.7 0.00 0.00 0.00 63 1008.2
20260510084601 17 117 3.2 9.7 0.00 0.00 0.00 63 1008.2
20260510084501 17 118 3.2 9.7 0.00 0.00 0.00 63 1008.2
20260510084429 17 101 3.2 9.7 0.00 0.00 0.00 63 1008.2
20260510084401 17 82 3.2 9.7 0.00 0.00 0.00 63 1008.2
20260510084301 17 103 3.2 11.3 0.00 0.00 0.00 63 1008.2
20260510084201 17 76 3.2 11.3 0.00 0.00 0.00 62 1008.3
20260510084101 17 84 3.2 11.3 0.00 0.00 0.00 62 1008.3
20260510084001 17 73 3.2 11.3 0.00 0.00 0.00 62 1008.3
20260510083930 17 78 3.2 11.3 0.00 0.00 0.00 61 1008.3
20260510083901 17 98 3.2 11.3 0.00 0.00 0.00 61 1008.3
20260510083801 17 92 3.2 12.9 0.00 0.00 0.00 62 1008.3
20260510083701 17 84 3.2 12.9 0.00 0.00 0.00 63 1008.4
20260510083600 17 99 3.2 12.9 0.00 0.00 0.00 62 1008.4
20260510083500 16 117 3.2 12.9 0.00 0.00 0.00 62 1008.4
20260510083429 16 111 3.2 12.9 0.00 0.00 0.00 63 1008.4
20260510083401 16 121 3.2 12.9 0.00 0.00 0.00 63 1008.4
20260510083301 16 87 3.2 12.9 0.00 0.00 0.00 63 1008.4
20260510083201 16 71 3.2 12.9 0.00 0.00 0.00 63 1008.3
20260510083101 16 84 4.8 12.9 0.00 0.00 0.00 63 1008.3
20260510083001 16 108 4.8 12.9 0.00 0.00 0.00 64 1008.4
20260510082929 16 107 3.2 12.9 0.00 0.00 0.00 64 1008.3
20260510082900 16 106 3.2 12.9 0.00 0.00 0.00 65 1008.3
20260510082805 16 109 4.8 12.9 0.00 0.00 0.00 65 1008.3
20260510082701 16 99 3.2 12.9 0.00 0.00 0.00 64 1008.4
20260510082601 16 99 3.2 12.9 0.00 0.00 0.00 65 1008.4
20260510082500 16 65 3.2 12.9 0.00 0.00 0.00 64 1008.4
20260510082429 16 103 3.2 12.9 0.00 0.00 0.00 64 1008.4
20260510082400 16 87 3.2 12.9 0.00 0.00 0.00 64 1008.4
20260510082307 16 99 3.2 16.1 0.00 0.00 0.00 64 1008.4
20260510082200 16 76 3.2 16.1 0.00 0.00 0.00 65 1008.3
20260510082101 16 123 3.2 16.1 0.00 0.00 0.00 66 1008.4
20260510082001 16 98 3.2 16.1 0.00 0.00 0.00 65 1008.4
20260510081929 16 76 3.2 16.1 0.00 0.00 0.00 65 1008.4
20260510081902 16 69 3.2 16.1 0.00 0.00 0.00 64 1008.4
20260510081803 16 92 3.2 16.1 0.00 0.00 0.00 65 1008.4
20260510081701 16 96 3.2 16.1 0.00 0.00 0.00 66 1008.4
20260510081601 16 128 3.2 16.1 0.00 0.00 0.00 66 1008.4
20260510081501 16 115 3.2 16.1 0.00 0.00 0.00 65 1008.4
20260510081429 16 111 3.2 16.1 0.00 0.00 0.00 64 1008.4
20260510081402 16 88 3.2 16.1 0.00 0.00 0.00 64 1008.4
20260510081301 16 117 3.2 11.3 0.00 0.00 0.00 66 1008.4
20260510081201 16 114 3.2 11.3 0.00 0.00 0.00 67 1008.4
20260510081101 16 93 3.2 11.3 0.00 0.00 0.00 68 1008.4
20260510081001 16 96 3.2 11.3 0.00 0.00 0.00 68 1008.4
20260510080928 16 96 3.2 11.3 0.00 0.00 0.00 68 1008.4
20260510080901 16 77 3.2 11.3 0.00 0.00 0.00 68 1008.4
20260510080801 16 88 3.2 11.3 0.00 0.00 0.00 67 1008.4
20260510080701 16 110 3.2 11.3 0.00 0.00 0.00 68 1008.4
20260510080601 16 82 3.2 11.3 0.00 0.00 0.00 67 1008.4
20260510080501 15 103 3.2 11.3 0.00 0.00 0.00 68 1008.4
20260510080429 15 93 3.2 11.3 0.00 0.00 0.00 68 1008.4
20260510080401 15 87 3.2 11.3 0.00 0.00 0.00 68 1008.4
20260510080300 15 61 3.2 11.3 0.00 0.00 0.00 69 1008.4
20260510080201 15 117 3.2 11.3 0.00 0.00 0.00 67 1008.4
20260510080056 15 119 3.2 11.3 0.00 0.00 0.00 67 1008.4
20260510075956 15 88 3.2 11.3 0.00 0.00 0.00 66 1008.4
20260510075929 15 103 3.2 9.7 0.00 0.00 0.00 68 1008.4
20260510075855 15 114 3.2 9.7 0.00 0.00 0.00 68 1008.6
20260510075756 15 88 3.2 12.9 0.00 0.00 0.00 68 1008.6
20260510075656 15 104 3.2 12.9 0.00 0.00 0.00 67 1008.6
20260510075551 15 104 3.2 12.9 0.00 0.00 0.00 68 1008.6
20260510075451 15 109 3.2 12.9 0.00 0.00 0.00 68 1008.6
20260510075430 15 93 3.2 12.9 0.00 0.00 0.00 68 1008.6
20260510075352 15 88 3.2 12.9 0.00 0.00 0.00 68 1008.6
20260510075252 15 86 3.2 12.9 0.00 0.00 0.00 67 1008.6
20260510075149 15 94 4.8 12.9 0.00 0.00 0.00 68 1008.6
20260510075044 15 95 4.8 12.9 0.00 0.00 0.00 68 1008.6
20260510074944 15 115 4.8 12.9 0.00 0.00 0.00 69 1008.6
20260510074930 15 112 4.8 14.5 0.00 0.00 0.00 69 1008.6
20260510074844 15 101 4.8 14.5 0.00 0.00 0.00 69 1008.6
20260510074744 15 132 4.8 14.5 0.00 0.00 0.00 69 1008.6
20260510074645 15 82 4.8 14.5 0.00 0.00 0.00 69 1008.6
20260510074538 15 100 4.8 14.5 0.00 0.00 0.00 70 1008.6
20260510074429 15 103 4.8 14.5 0.00 0.00 0.00 69 1008.7
20260510074338 15 114 4.8 14.5 0.00 0.00 0.00 68 1008.7
20260510074238 15 109 3.2 14.5 0.00 0.00 0.00 69 1008.7
20260510074138 15 144 3.2 14.5 0.00 0.00 0.00 68 1008.7
20260510074038 15 105 3.2 14.5 0.00 0.00 0.00 69 1008.7
20260510073938 15 111 3.2 14.5 0.00 0.00 0.00 70 1008.7
20260510073930 15 102 3.2 11.3 0.00 0.00 0.00 70 1008.7
20260510073838 14 132 3.2 11.3 0.00 0.00 0.00 69 1008.7
20260510073738 14 105 3.2 11.3 0.00 0.00 0.00 70 1008.7
20260510073638 14 90 3.2 11.3 0.00 0.00 0.00 71 1008.7
20260510073538 14 123 3.2 11.3 0.00 0.00 0.00 71 1008.7
20260510073428 14 132 3.2 11.3 0.00 0.00 0.00 71 1008.7
20260510073335 14 101 3.2 11.3 0.00 0.00 0.00 71 1008.7
20260510073236 14 101 3.2 11.3 0.00 0.00 0.00 72 1008.7
20260510073133 14 92 3.2 11.3 0.00 0.00 0.00 71 1008.7
20260510073033 14 91 3.2 11.3 0.00 0.00 0.00 72 1008.7
20260510072934 14 107 1.6 11.3 0.00 0.00 0.00 72 1008.7
20260510072929 14 108 1.6 11.3 0.00 0.00 0.00 72 1008.7
20260510072834 14 128 1.6 11.3 0.00 0.00 0.00 72 1008.7
20260510072734 13 88 1.6 11.3 0.00 0.00 0.00 73 1008.7
20260510072634 13 117 1.6 11.3 0.00 0.00 0.00 73 1008.7
20260510072532 13 117 1.6 11.3 0.00 0.00 0.00 72 1008.7
20260510072429 13 88 1.6 6.4 0.00 0.00 0.00 73 1008.7
20260510072329 13 90 1.6 6.4 0.00 0.00 0.00 74 1008.7
20260510072230 13 86 1.6 6.4 0.00 0.00 0.00 74 1008.7
20260510072129 13 82 1.6 6.4 0.00 0.00 0.00 73 1008.6
20260510072029 13 98 1.6 12.9 0.00 0.00 0.00 73 1008.6
20260510071931 13 98 3.2 12.9 0.00 0.00 0.00 73 1008.6
20260510071829 13 98 3.2 12.9 0.00 0.00 0.00 73 1008.7
20260510071729 13 92 3.2 12.9 0.00 0.00 0.00 74 1008.7
20260510071629 13 89 3.2 12.9 0.00 0.00 0.00 75 1008.7
20260510071529 13 89 3.2 12.9 0.00 0.00 0.00 75 1008.7
20260510071426 13 102 3.2 12.9 0.00 0.00 0.00 74 1008.7
20260510071329 13 103 3.2 12.9 0.00 0.00 0.00 74 1008.7
20260510071228 13 89 3.2 12.9 0.00 0.00 0.00 74 1008.8
20260510071128 13 96 3.2 12.9 0.00 0.00 0.00 74 1008.8
20260510071029 13 103 3.2 9.7 0.00 0.00 0.00 74 1008.8
20260510070920 12 123 3.2 9.7 0.00 0.00 0.00 75 1008.8
20260510070907 12 136 3.2 11.3 0.00 0.00 0.00 74 1008.8
20260510070902 12 119 3.2 9.7 0.00 0.00 0.00 75 1008.8
20260510070853 12 109 3.2 9.7 0.00 0.00 0.00 74 1008.8
20260510070634 12 108 3.2 9.7 0.00 0.00 0.00 74 1008.8
20260510070630 12 107 3.2 11.3 0.00 0.00 0.00 74 1008.8
20260510070625 12 136 3.2 11.3 0.00 0.00 0.00 74 1008.8
20260510070328 12 142 3.2 11.3 0.00 0.00 0.00 74 1008.8
20260510070233 12 141 3.2 11.3 0.00 0.00 0.00 74 1008.9
20260510070133 12 115 3.2 12.9 0.00 0.00 0.00 75 1008.9
20260510070128 12 140 3.2 11.3 0.00 0.00 0.00 75 1008.8
20260510070124 12 105 3.2 12.9 0.00 0.00 0.00 74 1008.9
20260510070120 12 114 3.2 12.9 0.00 0.00 0.00 75 1008.9
20260510065828 12 105 3.2 12.9 0.00 0.00 0.00 74 1008.9
20260510065730 12 103 3.2 12.9 0.00 0.00 0.00 74 1009.0
20260510065621 12 98 3.2 12.9 0.00 0.00 0.00 75 1009.0
20260510065521 12 111 1.6 12.9 0.00 0.00 0.00 76 1009.0
20260510065421 12 105 1.6 12.9 0.00 0.00 0.00 76 1009.0
20260510065406 12 128 1.6 12.9 0.00 0.00 0.00 76 1009.0
20260510065322 12 134 1.6 12.9 0.00 0.00 0.00 76 1009.0
20260510065224 12 134 1.6 12.9 0.00 0.00 0.00 75 1009.0
20260510065118 12 65 1.6 12.9 0.00 0.00 0.00 76 1009.0
20260510065018 12 96 1.6 6.4 0.00 0.00 0.00 76 1009.0
20260510064905 12 95 1.6 6.4 0.00 0.00 0.00 77 1009.0
20260510064815 12 88 1.6 6.4 0.00 0.00 0.00 77 1009.0
20260510064719 12 96 1.6 6.4 0.00 0.00 0.00 77 1009.0
20260510064615 12 111 1.6 6.4 0.00 0.00 0.00 76 1009.0
20260510064515 12 97 1.6 6.4 0.00 0.00 0.00 77 1009.0
20260510064404 12 109 1.6 6.4 0.00 0.00 0.00 77 1009.0
20260510064314 12 109 1.6 6.4 0.00 0.00 0.00 77 1009.0
20260510064218 12 101 1.6 6.4 0.00 0.00 0.00 77 1009.0
20260510064124 12 102 1.6 6.4 0.00 0.00 0.00 77 1009.1
20260510064120 12 92 1.6 6.4 0.00 0.00 0.00 77 1009.1
20260510064116 12 94 1.6 6.4 0.00 0.00 0.00 77 1009.1
20260510063811 11 94 1.6 6.4 0.00 0.00 0.00 77 1009.0
20260510063717 11 105 1.6 6.4 0.00 0.00 0.00 77 1009.0
20260510063610 11 126 1.6 6.4 0.00 0.00 0.00 78 1009.0
20260510063507 11 98 1.6 9.7 0.00 0.00 0.00 78 1009.1
20260510063403 11 99 1.6 9.7 0.00 0.00 0.00 78 1009.1
20260510063307 11 126 1.6 9.7 0.00 0.00 0.00 78 1009.1
20260510063208 11 104 1.6 9.7 0.00 0.00 0.00 78 1009.1
20260510063108 11 121 1.6 9.7 0.00 0.00 0.00 78 1009.1
20260510063006 11 115 1.6 9.7 0.00 0.00 0.00 77 1009.1
20260510062903 11 113 1.6 9.7 0.00 0.00 0.00 77 1009.1
20260510062803 11 99 1.6 9.7 0.00 0.00 0.00 77 1009.1
20260510062702 11 94 1.6 9.7 0.00 0.00 0.00 77 1009.1
20260510062602 11 99 1.6 9.7 0.00 0.00 0.00 77 1009.1
20260510062501 11 100 1.6 6.4 0.00 0.00 0.00 77 1009.0
20260510062405 11 101 1.6 6.4 0.00 0.00 0.00 77 1009.0
20260510062401 11 102 1.6 6.4 0.00 0.00 0.00 77 1009.0
20260510062306 11 86 1.6 6.4 0.00 0.00 0.00 78 1009.0
20260510062201 11 98 1.6 6.4 0.00 0.00 0.00 79 1009.1
20260510062101 11 84 1.6 6.4 0.00 0.00 0.00 78 1009.1
20260510062001 11 94 1.6 6.4 0.00 0.00 0.00 77 1009.1
20260510061904 11 94 1.6 6.4 0.00 0.00 0.00 78 1009.1
20260510061855 11 85 1.6 6.4 0.00 0.00 0.00 78 1009.1
20260510061755 11 92 1.6 6.4 0.00 0.00 0.00 78 1009.1
20260510061655 11 76 1.6 6.4 0.00 0.00 0.00 78 1009.1
20260510061555 11 118 1.6 6.4 0.00 0.00 0.00 78 1009.1
20260510061453 11 121 1.6 6.4 0.00 0.00 0.00 78 1009.1
20260510061403 11 69 1.6 4.8 0.00 0.00 0.00 78 1009.1
20260510061348 11 104 1.6 4.8 0.00 0.00 0.00 78 1009.1
20260510061248 11 110 1.6 4.8 0.00 0.00 0.00 78 1009.1
20260510061148 11 109 1.6 4.8 0.00 0.00 0.00 78 1009.2
20260510061048 11 111 1.6 4.8 0.00 0.00 0.00 79 1009.1
20260510060947 11 86 1.6 4.8 0.00 0.00 0.00 78 1009.2
20260510060904 11 86 1.6 4.8 0.00 0.00 0.00 78 1009.2
20260510060843 11 86 1.6 4.8 0.00 0.00 0.00 78 1009.2
20260510060744 11 95 1.6 4.8 0.00 0.00 0.00 79 1009.2
20260510060644 11 113 1.6 4.8 0.00 0.00 0.00 79 1009.2
20260510060542 11 88 1.6 4.8 0.00 0.00 0.00 79 1009.1
20260510060440 11 88 1.6 4.8 0.00 0.00 0.00 79 1009.2
20260510060404 11 88 1.6 6.4 0.00 0.00 0.00 80 1009.2
20260510060333 11 85 1.6 6.4 0.00 0.00 0.00 80 1009.1
20260510060233 11 82 3.2 6.4 0.00 0.00 0.00 80 1009.1
20260510060133 11 86 1.6 6.4 0.00 0.00 0.00 81 1009.1
20260510060033 10 91 1.6 6.4 0.00 0.00 0.00 81 1009.2
20260510055903 10 96 1.6 6.4 0.00 0.00 0.00 81 1009.2
20260510055830 10 114 1.6 6.4 0.00 0.00 0.00 81 1009.2
20260510055730 10 114 3.2 6.4 0.00 0.00 0.00 81 1009.2
20260510055630 10 90 3.2 6.4 0.00 0.00 0.00 81 1009.3
20260510055530 10 89 3.2 6.4 0.00 0.00 0.00 81 1009.3
20260510055429 10 91 3.2 6.4 0.00 0.00 0.00 81 1009.3
20260510055404 10 80 3.2 6.4 0.00 0.00 0.00 81 1009.3
20260510055329 10 84 3.2 6.4 0.00 0.00 0.00 82 1009.3
20260510055229 10 119 3.2 6.4 0.00 0.00 0.00 82 1009.3
20260510055129 10 95 3.2 6.4 0.00 0.00 0.00 82 1009.3
20260510055029 10 98 3.2 6.4 0.00 0.00 0.00 82 1009.3
20260510054904 10 105 3.2 9.7 0.00 0.00 0.00 82 1009.3
20260510054829 10 106 3.2 9.7 0.00 0.00 0.00 82 1009.3
20260510054732 10 107 3.2 9.7 0.00 0.00 0.00 82 1009.3
20260510054629 10 103 3.2 9.7 0.00 0.00 0.00 82 1009.4
20260510054529 9 103 1.6 9.7 0.00 0.00 0.00 82 1009.4
20260510054403 9 101 1.6 9.7 0.00 0.00 0.00 83 1009.4
20260510054329 9 109 1.6 9.7 0.00 0.00 0.00 83 1009.4
20260510054228 9 111 1.6 9.7 0.00 0.00 0.00 83 1009.4
20260510054129 9 95 1.6 9.7 0.00 0.00 0.00 83 1009.4
20260510054124 9 103 1.6 8.0 0.00 0.00 0.00 84 1009.3
20260510054118 9 87 1.6 9.7 0.00 0.00 0.00 84 1009.4
20260510054114 9 115 1.6 6.4 0.00 0.00 0.00 84 1009.3
20260510053829 9 101 3.2 8.0 0.00 0.00 0.00 84 1009.4
20260510053729 9 101 3.2 8.0 0.00 0.00 0.00 84 1009.4
20260510053628 8 100 3.2 8.0 0.00 0.00 0.00 83 1009.4
20260510053527 8 100 3.2 8.0 0.00 0.00 0.00 84 1009.4
20260510053427 8 107 4.8 11.3 0.00 0.00 0.00 84 1009.4
20260510053404 8 109 4.8 11.3 0.00 0.00 0.00 84 1009.4
20260510053327 8 110 4.8 11.3 0.00 0.00 0.00 84 1009.4
20260510053225 8 120 4.8 11.3 0.00 0.00 0.00 85 1009.4
20260510053126 8 125 6.4 11.3 0.00 0.00 0.00 85 1009.4
20260510053025 8 126 6.4 11.3 0.00 0.00 0.00 85 1009.4
20260510052921 8 143 6.4 11.3 0.00 0.00 0.00 85 1009.4
20260510052904 8 142 6.4 11.3 0.00 0.00 0.00 85 1009.4
20260510052821 8 145 6.4 11.3 0.00 0.00 0.00 86 1009.4
20260510052720 8 145 6.4 11.3 0.00 0.00 0.00 85 1009.5
20260510052619 8 142 6.4 12.9 0.00 0.00 0.00 86 1009.5
20260510052519 8 148 6.4 12.9 0.00 0.00 0.00 86 1009.5
20260510052419 8 148 6.4 12.9 0.00 0.00 0.00 85 1009.5
20260510052404 8 144 6.4 12.9 0.00 0.00 0.00 85 1009.5
20260510052320 8 144 6.4 12.9 0.00 0.00 0.00 85 1009.5
20260510052220 8 134 6.4 12.9 0.00 0.00 0.00 85 1009.5
20260510052120 8 140 6.4 12.9 0.00 0.00 0.00 85 1009.5
20260510052020 8 132 6.4 12.9 0.00 0.00 0.00 85 1009.5
20260510051919 8 132 6.4 12.9 0.00 0.00 0.00 85 1009.5
20260510051904 8 126 6.4 12.9 0.00 0.00 0.00 85 1009.5
20260510051819 8 132 6.4 12.9 0.00 0.00 0.00 85 1009.4
20260510051716 8 139 6.4 12.9 0.00 0.00 0.00 86 1009.5
20260510051615 8 150 6.4 12.9 0.00 0.00 0.00 86 1009.5
20260510051515 7 136 6.4 12.9 0.00 0.00 0.00 86 1009.5
20260510051415 7 139 6.4 12.9 0.00 0.00 0.00 86 1009.5
20260510051404 7 132 6.4 12.9 0.00 0.00 0.00 86 1009.5
20260510051316 7 150 6.4 12.9 0.00 0.00 0.00 86 1009.4
20260510051216 7 135 6.4 12.9 0.00 0.00 0.00 86 1009.4
20260510051115 7 138 4.8 12.9 0.00 0.00 0.00 86 1009.4
20260510051016 7 142 4.8 12.9 0.00 0.00 0.00 86 1009.4
20260510050916 7 145 4.8 12.9 0.00 0.00 0.00 87 1009.4
20260510050904 7 149 4.8 12.9 0.00 0.00 0.00 87 1009.4
20260510050816 7 155 4.8 12.9 0.00 0.00 0.00 87 1009.4
20260510050716 7 111 4.8 11.3 0.00 0.00 0.00 87 1009.4
20260510050615 7 138 4.8 11.3 0.00 0.00 0.00 87 1009.4
20260510050515 7 130 4.8 11.3 0.00 0.00 0.00 87 1009.4
20260510050403 7 140 4.8 11.3 0.00 0.00 0.00 87 1009.4
20260510050315 7 141 4.8 11.3 0.00 0.00 0.00 87 1009.4
20260510050216 7 150 3.2 11.3 0.00 0.00 0.00 87 1009.4
20260510050116 6 144 3.2 9.7 0.00 0.00 0.00 87 1009.4
20260510050016 6 134 3.2 9.7 0.00 0.00 0.00 87 1009.4
20260510045915 6 153 3.2 8.0 0.00 0.00 0.00 88 1009.4
20260510045903 6 151 3.2 8.0 0.00 0.00 0.00 88 1009.4
20260510045811 6 165 3.2 8.0 0.00 0.00 0.00 88 1009.4
20260510045711 6 165 1.6 8.0 0.00 0.00 0.00 88 1009.3
20260510045611 6 154 1.6 8.0 0.00 0.00 0.00 88 1009.3
20260510045512 6 137 1.6 4.8 0.00 0.00 0.00 88 1009.3
20260510045404 6 136 1.6 4.8 0.00 0.00 0.00 88 1009.3
20260510045311 6 136 1.6 4.8 0.00 0.00 0.00 88 1009.3
20260510045211 6 136 1.6 3.2 0.00 0.00 0.00 88 1009.3
20260510045123 6 136 1.6 3.2 0.00 0.00 0.00 88 1009.3
20260510045119 6 136 1.6 3.2 0.00 0.00 0.00 88 1009.3
20260510045115 6 136 0.0 3.2 0.00 0.00 0.00 88 1009.4
20260510044811 6 136 0.0 3.2 0.00 0.00 0.00 88 1009.4
20260510044711 6 136 0.0 3.2 0.00 0.00 0.00 88 1009.4
20260510044612 6 136 0.0 3.2 0.00 0.00 0.00 88 1009.5
20260510044511 6 136 0.0 3.2 0.00 0.00 0.00 88 1009.5
20260510044403 6 136 0.0 3.2 0.00 0.00 0.00 88 1009.5
20260510044311 6 136 0.0 3.2 0.00 0.00 0.00 88 1009.5
20260510044211 6 136 0.0 3.2 0.00 0.00 0.00 88 1009.5
20260510044111 6 136 0.0 3.2 0.00 0.00 0.00 88 1009.5
20260510044012 6 136 0.0 3.2 0.00 0.00 0.00 88 1009.5
20260510043904 6 136 0.0 3.2 0.00 0.00 0.00 88 1009.6
20260510043808 6 136 0.0 3.2 0.00 0.00 0.00 88 1009.6
20260510043708 6 136 0.0 3.2 0.00 0.00 0.00 88 1009.6
20260510043607 5 136 0.0 3.2 0.00 0.00 0.00 87 1009.7
20260510043507 5 136 0.0 3.2 0.00 0.00 0.00 87 1009.6
20260510043404 5 136 0.0 6.4 0.00 0.00 0.00 87 1009.7
20260510043308 5 136 1.6 8.0 0.00 0.00 0.00 87 1009.7
20260510043208 5 136 1.6 11.3 0.00 0.00 0.00 86 1009.7
20260510043121 5 136 1.6 11.3 0.00 0.00 0.00 87 1009.7
20260510043117 5 136 3.2 11.3 0.00 0.00 0.00 86 1009.8
20260510043113 5 136 3.2 11.3 0.00 0.00 0.00 86 1009.8
20260510042807 5 136 3.2 11.3 0.00 0.00 0.00 86 1009.8
20260510042708 5 136 3.2 11.3 0.00 0.00 0.00 86 1009.8
20260510042608 5 136 4.8 11.3 0.00 0.00 0.00 86 1009.8
20260510042507 5 136 4.8 11.3 0.00 0.00 0.00 86 1009.8
20260510042407 5 139 4.8 11.3 0.00 0.00 0.00 86 1009.8
20260510042403 5 138 4.8 11.3 0.00 0.00 0.00 86 1009.8
20260510042307 5 143 4.8 11.3 0.00 0.00 0.00 86 1009.8
20260510042208 5 138 4.8 8.0 0.00 0.00 0.00 86 1009.9
20260510042113 5 140 3.2 8.0 0.00 0.00 0.00 86 1009.9
20260510042003 5 139 3.2 8.0 0.00 0.00 0.00 86 1009.8
20260510041903 5 141 3.2 8.0 0.00 0.00 0.00 86 1009.9
20260510041803 5 142 3.2 8.0 0.00 0.00 0.00 86 1009.9
20260510041703 5 133 1.6 6.4 0.00 0.00 0.00 86 1009.9
20260510041605 5 134 1.6 6.4 0.00 0.00 0.00 86 1009.8
20260510041504 5 136 1.6 6.4 0.00 0.00 0.00 86 1009.8
20260510041404 5 135 0.0 4.8 0.00 0.00 0.00 86 1009.8
20260510041303 5 134 0.0 3.2 0.00 0.00 0.00 85 1009.7
20260510041203 5 134 0.0 3.2 0.00 0.00 0.00 85 1009.7
20260510041105 5 134 0.0 1.6 0.00 0.00 0.00 85 1009.7
20260510041004 5 134 0.0 3.2 0.00 0.00 0.00 84 1009.7
20260510040904 5 134 0.0 3.2 0.00 0.00 0.00 84 1009.7
20260510040804 6 134 0.0 3.2 0.00 0.00 0.00 84 1009.8
20260510040703 6 134 0.0 3.2 0.00 0.00 0.00 84 1009.8
20260510040627 6 134 0.0 3.2 0.00 0.00 0.00 84 1009.7
20260510040618 6 134 0.0 3.2 0.00 0.00 0.00 84 1009.8
20260510040614 6 134 1.6 3.2 0.00 0.00 0.00 84 1009.8
20260510040303 6 134 1.6 3.2 0.00 0.00 0.00 84 1009.8
20260510040204 6 134 1.6 3.2 0.00 0.00 0.00 83 1009.8
20260510040001 6 134 1.6 3.2 0.00 0.00 0.00 83 1009.8
20260510035901 6 134 1.6 3.2 0.00 0.00 0.00 83 1009.8
20260510035852 6 134 1.6 3.2 0.00 0.00 0.00 82 1009.7
20260510035844 6 134 1.6 3.2 0.00 0.00 0.00 83 1009.8
20260510035839 6 134 1.6 3.2 0.00 0.00 0.00 82 1009.8
20260510035624 6 134 1.6 3.2 0.00 0.00 0.00 82 1009.8
20260510035616 6 134 1.6 3.2 0.00 0.00 0.00 82 1009.8
20260510035612 6 134 1.6 3.2 0.00 0.00 0.00 82 1009.7
20260510035301 6 134 1.6 3.2 0.00 0.00 0.00 83 1009.7
20260510035201 6 134 1.6 3.2 0.00 0.00 0.00 83 1009.7
20260510035101 6 134 1.6 3.2 0.00 0.00 0.00 83 1009.7
20260510035001 6 134 1.6 3.2 0.00 0.00 0.00 83 1009.8
20260510034901 6 134 1.6 3.2 0.00 0.00 0.00 83 1009.8
20260510034801 6 134 1.6 3.2 0.00 0.00 0.00 83 1009.7
20260510034701 6 134 1.6 3.2 0.00 0.00 0.00 84 1009.7
20260510034601 6 134 1.6 3.2 0.00 0.00 0.00 84 1009.7
20260510034501 6 134 1.6 3.2 0.00 0.00 0.00 85 1009.7
20260510034400 6 134 1.6 3.2 0.00 0.00 0.00 85 1009.7
20260510034300 6 134 1.6 3.2 0.00 0.00 0.00 85 1009.7
20260510034201 6 134 1.6 3.2 0.00 0.00 0.00 85 1009.7
20260510034101 6 134 1.6 3.2 0.00 0.00 0.00 85 1009.7
20260510034001 6 134 1.6 3.2 0.00 0.00 0.00 85 1009.8
20260510033901 6 134 1.6 3.2 0.00 0.00 0.00 85 1009.8
20260510033801 6 134 1.6 3.2 0.00 0.00 0.00 85 1009.8
20260510033701 6 134 1.6 3.2 0.00 0.00 0.00 85 1009.8
20260510033624 6 134 1.6 3.2 0.00 0.00 0.00 85 1009.8
20260510033616 6 134 1.6 3.2 0.00 0.00 0.00 85 1009.8
20260510033612 6 134 0.0 3.2 0.00 0.00 0.00 85 1009.8
20260510033301 6 134 0.0 3.2 0.00 0.00 0.00 84 1009.9
20260510033201 6 134 0.0 3.2 0.00 0.00 0.00 84 1009.9
20260510033101 6 134 0.0 3.2 0.00 0.00 0.00 84 1009.9
20260510033000 6 134 0.0 3.2 0.00 0.00 0.00 84 1009.9
20260510032902 6 134 0.0 3.2 0.00 0.00 0.00 84 1009.9
20260510032802 6 134 0.0 3.2 0.00 0.00 0.00 84 1009.9
20260510032702 6 134 0.0 3.2 0.00 0.00 0.00 84 1009.9
20260510032602 6 134 0.0 3.2 0.00 0.00 0.00 83 1010.0
20260510032502 6 134 0.0 3.2 0.00 0.00 0.00 83 1010.0
20260510032401 6 134 0.0 3.2 0.00 0.00 0.00 83 1010.0
20260510032305 6 134 0.0 3.2 0.00 0.00 0.00 83 1010.1
20260510032201 6 134 0.0 3.2 0.00 0.00 0.00 83 1010.0
20260510032101 6 134 0.0 3.2 0.00 0.00 0.00 83 1010.0
20260510032001 6 135 0.0 3.2 0.00 0.00 0.00 83 1010.1
20260510031901 6 135 1.6 3.2 0.00 0.00 0.00 83 1010.1
20260510031801 6 135 1.6 4.8 0.00 0.00 0.00 83 1010.1
20260510031700 7 135 1.6 4.8 0.00 0.00 0.00 83 1010.1
20260510031624 7 135 1.6 4.8 0.00 0.00 0.00 82 1010.1
20260510031616 7 135 1.6 4.8 0.00 0.00 0.00 82 1010.1
20260510031612 7 135 1.6 4.8 0.00 0.00 0.00 82 1010.1
20260510031301 7 135 3.2 8.0 0.00 0.00 0.00 82 1010.2
20260510031201 7 135 3.2 11.3 0.00 0.00 0.00 82 1010.2
20260510031101 7 135 3.2 11.3 0.00 0.00 0.00 82 1010.4
20260510031001 7 135 4.8 11.3 0.00 0.00 0.00 82 1010.2
20260510030901 7 135 4.8 11.3 0.00 0.00 0.00 82 1010.2
20260510030800 7 135 4.8 11.3 0.00 0.00 0.00 82 1010.2
20260510030700 7 134 4.8 11.3 0.00 0.00 0.00 82 1010.2
20260510030600 7 134 4.8 11.3 0.00 0.00 0.00 81 1010.2
20260510030500 7 134 4.8 11.3 0.00 0.00 0.00 81 1010.2
20260510030400 7 137 4.8 11.3 0.00 0.00 0.00 81 1010.4
20260510030300 7 140 4.8 11.3 0.00 0.00 0.00 82 1010.2
20260510030201 7 126 4.8 11.3 0.00 0.00 0.00 82 1010.2
20260510030001 7 140 3.2 11.3 0.00 0.00 0.00 82 1010.2
20260510025901 7 142 3.2 6.4 0.00 0.00 0.00 82 1010.1
20260510025801 7 134 3.2 12.9 0.00 0.00 0.00 82 1010.1
20260510025701 7 134 3.2 12.9 0.00 0.00 0.00 82 1010.1
20260510025601 7 135 4.8 12.9 0.00 0.00 0.00 82 1010.1
20260510025501 7 134 4.8 12.9 0.00 0.00 0.00 82 1010.1
20260510025401 7 142 4.8 12.9 0.00 0.00 0.00 82 1010.1
20260510025301 7 142 4.8 12.9 0.00 0.00 0.00 82 1010.1
20260510025202 7 128 4.8 12.9 0.00 0.00 0.00 82 1010.1
20260510025101 7 128 4.8 12.9 0.00 0.00 0.00 82 1010.1
20260510025001 7 128 4.8 12.9 0.00 0.00 0.00 82 1010.1
20260510024901 7 142 4.8 12.9 0.00 0.00 0.00 82 1010.1
20260510024801 7 132 4.8 11.3 0.00 0.00 0.00 82 1010.0
20260510024701 7 144 4.8 11.3 0.00 0.00 0.00 82 1010.1
20260510024601 7 136 4.8 11.3 0.00 0.00 0.00 81 1010.1
20260510024501 7 136 4.8 9.7 0.00 0.00 0.00 81 1010.0
20260510024401 7 138 4.8 9.7 0.00 0.00 0.00 81 1010.1
20260510024301 7 140 4.8 8.0 0.00 0.00 0.00 81 1010.0
20260510024201 7 136 4.8 8.0 0.00 0.00 0.00 81 1010.1
20260510024101 7 135 3.2 8.0 0.00 0.00 0.00 81 1010.1
20260510024001 7 126 3.2 8.0 0.00 0.00 0.00 81 1010.1
20260510023901 7 138 3.2 8.0 0.00 0.00 0.00 81 1010.1
20260510023800 7 129 3.2 8.0 0.00 0.00 0.00 81 1010.1
20260510023700 7 135 3.2 6.4 0.00 0.00 0.00 81 1010.1
20260510023600 7 137 3.2 6.4 0.00 0.00 0.00 81 1010.1
20260510023500 7 132 3.2 6.4 0.00 0.00 0.00 81 1010.1
20260510023400 7 136 3.2 6.4 0.00 0.00 0.00 81 1010.1
20260510023300 7 141 3.2 4.8 0.00 0.00 0.00 81 1010.1
20260510023200 7 141 3.2 4.8 0.00 0.00 0.00 81 1010.1
20260510023100 7 141 3.2 4.8 0.00 0.00 0.00 81 1010.1
20260510023001 7 141 3.2 6.4 0.00 0.00 0.00 81 1010.1
20260510022901 7 144 3.2 6.4 0.00 0.00 0.00 81 1010.1
20260510022802 7 143 3.2 6.4 0.00 0.00 0.00 81 1010.1
20260510022702 7 142 3.2 6.4 0.00 0.00 0.00 81 1010.1
20260510022602 7 142 3.2 6.4 0.00 0.00 0.00 80 1010.1
20260510022506 7 142 3.2 6.4 0.00 0.00 0.00 80 1010.1
20260510022402 7 142 3.2 6.4 0.00 0.00 0.00 80 1010.1
20260510022355 7 142 3.2 6.4 0.00 0.00 0.00 80 1010.1
20260510022256 7 142 3.2 6.4 0.00 0.00 0.00 80 1010.1
20260510022156 7 142 3.2 6.4 0.00 0.00 0.00 80 1010.1
20260510022055 7 141 3.2 6.4 0.00 0.00 0.00 80 1010.1
20260510021958 7 138 3.2 6.4 0.00 0.00 0.00 80 1010.1
20260510021901 7 138 3.2 6.4 0.00 0.00 0.00 80 1010.1
20260510021851 7 140 3.2 6.4 0.00 0.00 0.00 80 1010.1
20260510021751 7 140 3.2 6.4 0.00 0.00 0.00 80 1010.1
20260510021651 7 137 3.2 6.4 0.00 0.00 0.00 80 1010.1
20260510021551 7 137 3.2 6.4 0.00 0.00 0.00 80 1010.1
20260510021452 7 137 3.2 6.4 0.00 0.00 0.00 80 1010.1
20260510021401 7 137 3.2 6.4 0.00 0.00 0.00 80 1010.1
20260510021343 7 137 3.2 6.4 0.00 0.00 0.00 80 1010.1
20260510021241 7 137 3.2 6.4 0.00 0.00 0.00 80 1010.1
20260510021141 7 135 3.2 6.4 0.00 0.00 0.00 80 1010.1
20260510021041 7 145 3.2 6.4 0.00 0.00 0.00 80 1010.2
20260510020941 7 150 3.2 6.4 0.00 0.00 0.00 80 1010.2
20260510020901 7 141 3.2 6.4 0.00 0.00 0.00 80 1010.2
20260510020836 7 143 3.2 6.4 0.00 0.00 0.00 80 1010.1
20260510020735 7 143 3.2 6.4 0.00 0.00 0.00 80 1010.2
20260510020635 7 142 3.2 6.4 0.00 0.00 0.00 81 1010.2
20260510020535 7 138 3.2 4.8 0.00 0.00 0.00 81 1010.2
20260510020435 7 137 3.2 6.4 0.00 0.00 0.00 81 1010.2
20260510020402 7 137 3.2 6.4 0.00 0.00 0.00 81 1010.2
20260510020332 7 136 3.2 6.4 0.00 0.00 0.00 81 1010.2
20260510020231 7 136 3.2 6.4 0.00 0.00 0.00 81 1010.4
20260510020131 7 138 3.2 6.4 0.00 0.00 0.00 81 1010.2
20260510020121 7 140 3.2 6.4 0.00 0.00 0.00 81 1010.4
20260510020112 7 144 3.2 6.4 0.00 0.00 0.00 81 1010.2
20260510015829 7 145 3.2 6.4 0.00 0.00 0.00 81 1010.2
20260510015729 7 145 3.2 6.4 0.00 0.00 0.00 81 1010.4
20260510015629 7 144 3.2 6.4 0.00 0.00 0.00 81 1010.4
20260510015529 7 143 3.2 4.8 0.00 0.00 0.00 81 1010.4
20260510015401 7 143 3.2 4.8 0.00 0.00 0.00 81 1010.4
20260510015329 7 143 3.2 4.8 0.00 0.00 0.00 81 1010.4
20260510015230 7 142 3.2 4.8 0.00 0.00 0.00 81 1010.4
20260510015129 7 143 3.2 4.8 0.00 0.00 0.00 81 1010.4
20260510015029 7 143 3.2 4.8 0.00 0.00 0.00 81 1010.4
20260510014901 7 142 3.2 4.8 0.00 0.00 0.00 81 1010.4
20260510014829 7 142 3.2 4.8 0.00 0.00 0.00 81 1010.5
20260510014729 7 142 3.2 4.8 0.00 0.00 0.00 81 1010.5
20260510014629 7 142 3.2 4.8 0.00 0.00 0.00 81 1010.5
20260510014529 7 142 3.2 4.8 0.00 0.00 0.00 81 1010.5
20260510014403 7 142 3.2 4.8 0.00 0.00 0.00 81 1010.5
20260510014329 7 142 3.2 4.8 0.00 0.00 0.00 81 1010.5
20260510014229 7 142 3.2 4.8 0.00 0.00 0.00 81 1010.5
20260510014128 7 142 3.2 4.8 0.00 0.00 0.00 81 1010.5
20260510014028 7 142 3.2 4.8 0.00 0.00 0.00 81 1010.5
20260510013900 7 142 3.2 4.8 0.00 0.00 0.00 81 1010.5
20260510013829 7 142 3.2 4.8 0.00 0.00 0.00 81 1010.5
20260510013729 7 142 3.2 4.8 0.00 0.00 0.00 81 1010.5
20260510013629 7 142 3.2 4.8 0.00 0.00 0.00 82 1010.5
20260510013529 7 142 3.2 6.4 0.00 0.00 0.00 82 1010.5
20260510013429 7 142 3.2 6.4 0.00 0.00 0.00 82 1010.5
20260510013359 7 142 3.2 6.4 0.00 0.00 0.00 82 1010.6
20260510013329 7 142 3.2 6.4 0.00 0.00 0.00 82 1010.6
20260510013228 7 141 3.2 6.4 0.00 0.00 0.00 82 1010.6
20260510013129 7 141 3.2 6.4 0.00 0.00 0.00 82 1010.6
20260510013119 7 141 3.2 6.4 0.00 0.00 0.00 82 1010.6
20260510013113 7 141 3.2 6.4 0.00 0.00 0.00 82 1010.6
20260510013104 7 141 3.2 6.4 0.00 0.00 0.00 82 1010.6
20260510012829 7 141 3.2 6.4 0.00 0.00 0.00 82 1010.6
20260510012729 7 141 3.2 6.4 0.00 0.00 0.00 82 1010.6
20260510012629 7 140 1.6 6.4 0.00 0.00 0.00 82 1010.6
20260510012528 7 140 1.6 6.4 0.00 0.00 0.00 82 1010.6
20260510012424 7 140 1.6 4.8 0.00 0.00 0.00 82 1010.6
20260510012323 7 140 1.6 4.8 0.00 0.00 0.00 82 1010.6
20260510012223 7 140 1.6 4.8 0.00 0.00 0.00 82 1010.6
20260510012123 7 140 1.6 3.2 0.00 0.00 0.00 81 1010.6
20260510012023 7 140 1.6 3.2 0.00 0.00 0.00 81 1010.6
20260510011919 7 140 1.6 4.8 0.00 0.00 0.00 80 1010.6
20260510011819 7 140 1.6 4.8 0.00 0.00 0.00 80 1010.6
20260510011719 7 140 1.6 4.8 0.00 0.00 0.00 80 1010.6
20260510011619 7 140 1.6 4.8 0.00 0.00 0.00 80 1010.6
20260510011611 7 140 3.2 8.0 0.00 0.00 0.00 81 1010.7
20260510011601 7 140 3.2 8.0 0.00 0.00 0.00 80 1010.6
20260510011553 7 140 3.2 8.0 0.00 0.00 0.00 80 1010.7
20260510011311 7 140 3.2 8.0 0.00 0.00 0.00 81 1010.7
20260510011212 7 140 3.2 8.0 0.00 0.00 0.00 81 1010.7
20260510011111 7 140 3.2 8.0 0.00 0.00 0.00 80 1010.7
20260510011010 7 140 3.2 8.0 0.00 0.00 0.00 80 1010.7
20260510010907 7 140 3.2 8.0 0.00 0.00 0.00 80 1010.7
20260510010839 7 140 1.6 8.0 0.00 0.00 0.00 80 1010.7
20260510010805 7 140 1.6 8.0 0.00 0.00 0.00 80 1010.7
20260510010705 7 138 1.6 8.0 0.00 0.00 0.00 80 1010.7
20260510010605 7 135 1.6 8.0 0.00 0.00 0.00 80 1010.7
20260510010505 7 138 1.6 4.8 0.00 0.00 0.00 80 1010.7
20260510010405 7 136 1.6 4.8 0.00 0.00 0.00 80 1010.7
20260510010337 7 136 1.6 4.8 0.00 0.00 0.00 80 1010.7
20260510010303 7 136 1.6 4.8 0.00 0.00 0.00 80 1010.7
20260510010201 7 136 1.6 4.8 0.00 0.00 0.00 80 1010.7
20260510010001 7 135 1.6 4.8 0.00 0.00 0.00 80 1010.7
20260510005901 8 136 1.6 4.8 0.00 0.00 0.00 80 1010.7
20260510005835 8 136 1.6 4.8 0.00 0.00 0.00 80 1010.7
20260510005801 8 136 1.6 4.8 0.00 0.00 0.00 80 1010.7
20260510005701 8 135 1.6 4.8 0.00 0.00 0.00 80 1010.7
20260510005605 8 135 0.0 4.8 0.00 0.00 0.00 80 1010.7
20260510005600 8 135 0.0 4.8 0.00 0.00 0.00 80 1010.8
20260510005555 8 135 0.0 4.8 0.00 0.00 0.00 80 1010.8
20260510005546 8 135 0.0 4.8 0.00 0.00 0.00 80 1010.8
20260510005301 8 135 0.0 4.8 0.00 0.00 0.00 80 1010.8
20260510005201 8 135 0.0 4.8 0.00 0.00 0.00 80 1010.8
20260510005101 8 135 0.0 4.8 0.00 0.00 0.00 80 1010.8
20260510005001 8 135 0.0 1.6 0.00 0.00 0.00 80 1010.8
20260510004901 8 135 0.0 1.6 0.00 0.00 0.00 80 1010.8
20260510004835 8 135 0.0 1.6 0.00 0.00 0.00 80 1010.8
20260510004801 8 135 0.0 1.6 0.00 0.00 0.00 80 1010.8
20260510004701 8 135 0.0 1.6 0.00 0.00 0.00 80 1010.8
20260510004601 8 135 0.0 1.6 0.00 0.00 0.00 80 1010.8
20260510004501 8 135 0.0 1.6 0.00 0.00 0.00 80 1010.8
20260510004400 8 135 0.0 1.6 0.00 0.00 0.00 80 1010.8
20260510004335 8 135 0.0 1.6 0.00 0.00 0.00 80 1010.8
20260510004300 8 135 0.0 1.6 0.00 0.00 0.00 80 1010.8
20260510004201 8 135 0.0 1.6 0.00 0.00 0.00 80 1010.8
20260510004101 8 135 0.0 1.6 0.00 0.00 0.00 80 1010.8
20260510004001 8 135 0.0 3.2 0.00 0.00 0.00 80 1010.8
20260510003901 8 135 0.0 3.2 0.00 0.00 0.00 80 1010.8
20260510003835 8 135 0.0 3.2 0.00 0.00 0.00 80 1010.8
20260510003801 8 135 0.0 3.2 0.00 0.00 0.00 80 1010.8
20260510003700 8 135 1.6 3.2 0.00 0.00 0.00 80 1010.8
20260510003607 8 135 1.6 3.2 0.00 0.00 0.00 80 1010.8
20260510003600 8 135 1.6 3.2 0.00 0.00 0.00 80 1010.8
20260510003556 8 135 1.6 3.2 0.00 0.00 0.00 80 1010.8
20260510003548 8 135 1.6 3.2 0.00 0.00 0.00 80 1010.8
20260510003301 8 135 1.6 3.2 0.00 0.00 0.00 80 1010.8
20260510003201 8 135 1.6 3.2 0.00 0.00 0.00 79 1010.8
20260510003101 8 135 1.6 3.2 0.00 0.00 0.00 79 1010.8
20260510003001 8 135 1.6 4.8 0.00 0.00 0.00 79 1010.8
20260510002901 8 135 1.6 4.8 0.00 0.00 0.00 79 1010.8
20260510002837 8 135 1.6 4.8 0.00 0.00 0.00 79 1010.8
20260510002801 8 135 1.6 4.8 0.00 0.00 0.00 79 1010.8
20260510002701 8 135 1.6 4.8 0.00 0.00 0.00 78 1010.8
20260510002601 8 135 1.6 4.8 0.00 0.00 0.00 78 1010.8
20260510002501 8 135 3.2 4.8 0.00 0.00 0.00 79 1010.9
20260510002401 8 135 3.2 4.8 0.00 0.00 0.00 79 1010.9
20260510002333 8 135 3.2 4.8 0.00 0.00 0.00 79 1010.9
20260510002301 8 135 3.2 6.4 0.00 0.00 0.00 79 1010.9
20260510002201 8 135 3.2 6.4 0.00 0.00 0.00 79 1010.9
20260510002101 8 136 3.2 6.4 0.00 0.00 0.00 79 1010.9
20260510002001 8 135 3.2 6.4 0.00 0.00 0.00 79 1011.0
20260510001901 8 135 3.2 6.4 0.00 0.00 0.00 79 1011.0
20260510001833 8 134 3.2 6.4 0.00 0.00 0.00 79 1011.0
20260510001800 8 134 3.2 6.4 0.00 0.00 0.00 78 1011.0
20260510001701 8 133 3.2 6.4 0.00 0.00 0.00 78 1011.0
20260510001601 8 132 3.2 6.4 0.00 0.00 0.00 78 1011.0
20260510001501 8 130 3.2 6.4 0.00 0.00 0.00 78 1011.0
20260510001405 8 128 3.2 6.4 0.00 0.00 0.00 77 1011.0
20260510001331 8 127 3.2 6.4 0.00 0.00 0.00 77 1011.0
20260510001300 8 126 3.2 6.4 0.00 0.00 0.00 77 1011.0
20260510001200 8 126 3.2 6.4 0.00 0.00 0.00 76 1011.0
20260510001100 9 124 3.2 4.8 0.00 0.00 0.00 76 1011.0
20260510001000 9 122 3.2 4.8 0.00 0.00 0.00 76 1011.0
20260510000904 9 121 3.2 4.8 0.00 0.00 0.00 76 1011.0
20260510000831 9 121 3.2 4.8 0.00 0.00 0.00 76 1011.0
20260510000801 9 121 3.2 4.8 0.00 0.00 0.00 76 1011.0
20260510000700 9 121 3.2 4.8 0.00 0.00 0.00 76 1011.0
20260510000600 9 120 3.2 4.8 0.00 0.00 0.00 75 1011.0
20260510000500 9 119 3.2 4.8 0.00 0.00 0.00 75 1011.0
20260510000400 9 119 1.6 4.8 0.00 0.00 0.00 75 1011.0
20260510000333 9 118 1.6 4.8 0.00 0.00 0.00 75 1011.1
20260510000304 9 117 1.6 4.8 0.00 0.00 0.00 75 1011.1
20260510000200 9 114 1.6 4.8 0.00 0.00 0.00 75 1011.0
20260510000001 9 113 3.2 4.8 0.00 0.00 0.00 75 1011.1
20260509235901 10 113 3.2 4.8 0.00 0.00 0.00 75 1011.1
20260509235800 10 113 3.2 4.8 0.00 0.00 0.00 75 1011.1
20260509235701 10 113 3.2 4.8 0.00 0.00 0.00 75 1011.1
20260509235601 10 113 1.6 4.8 0.00 0.00 0.00 76 1011.1
20260509235501 10 111 1.6 4.8 0.00 0.00 0.00 76 1011.1
20260509235401 10 111 1.6 4.8 0.00 0.00 0.00 76 1011.1
20260509235301 10 111 1.6 4.8 0.00 0.00 0.00 76 1011.1
20260509235201 10 111 1.6 4.8 0.00 0.00 0.00 76 1011.2
20260509235101 10 111 1.6 4.8 0.00 0.00 0.00 76 1011.2
20260509235001 10 111 1.6 4.8 0.00 0.00 0.00 76 1011.1
20260509234901 10 111 1.6 4.8 0.00 0.00 0.00 76 1011.1
20260509234830 10 110 1.6 4.8 0.00 0.00 0.00 76 1011.2
20260509234800 10 110 1.6 4.8 0.00 0.00 0.00 76 1011.2
20260509234701 10 110 1.6 4.8 0.00 0.00 0.00 76 1011.2
20260509234601 10 110 1.6 4.8 0.00 0.00 0.00 76 1011.2
20260509234501 10 111 1.6 4.8 0.00 0.00 0.00 76 1011.1
20260509234401 10 111 1.6 3.2 0.00 0.00 0.00 76 1011.2
20260509234300 10 111 1.6 3.2 0.00 0.00 0.00 76 1011.2
20260509234200 10 111 1.6 3.2 0.00 0.00 0.00 76 1011.2
20260509234100 10 111 1.6 3.2 0.00 0.00 0.00 76 1011.2
20260509234000 10 112 1.6 3.2 0.00 0.00 0.00 76 1011.2
20260509233857 10 112 1.6 3.2 0.00 0.00 0.00 75 1011.2
20260509233829 10 112 1.6 3.2 0.00 0.00 0.00 75 1011.3
20260509233756 10 112 1.6 3.2 0.00 0.00 0.00 75 1011.3
20260509233656 10 112 1.6 4.8 0.00 0.00 0.00 75 1011.3
20260509233558 10 112 1.6 4.8 0.00 0.00 0.00 75 1011.4
20260509233548 10 112 1.6 4.8 0.00 0.00 0.00 75 1011.4
20260509233544 10 112 1.6 4.8 0.00 0.00 0.00 75 1011.3
20260509233252 10 112 1.6 4.8 0.00 0.00 0.00 75 1011.4
20260509233152 10 112 1.6 4.8 0.00 0.00 0.00 75 1011.4
20260509233052 10 112 1.6 4.8 0.00 0.00 0.00 75 1011.4
20260509232950 10 112 1.6 4.8 0.00 0.00 0.00 75 1011.4
20260509232829 10 112 1.6 4.8 0.00 0.00 0.00 75 1011.4
20260509232745 10 112 1.6 4.8 0.00 0.00 0.00 74 1011.4
20260509232645 10 113 1.6 4.8 0.00 0.00 0.00 74 1011.4
20260509232545 10 112 1.6 4.8 0.00 0.00 0.00 74 1011.4
20260509232445 10 113 1.6 4.8 0.00 0.00 0.00 74 1011.4
20260509232332 10 113 1.6 4.8 0.00 0.00 0.00 74 1011.5
20260509232322 10 111 1.6 3.2 0.00 0.00 0.00 74 1011.4
20260509232312 10 113 1.6 4.8 0.00 0.00 0.00 74 1011.5
20260509232308 10 113 1.6 4.8 0.00 0.00 0.00 74 1011.5
20260509232053 10 113 1.6 4.8 0.00 0.00 0.00 74 1011.5
20260509232051 10 112 1.6 4.8 0.00 0.00 0.00 74 1011.5
20260509232045 10 111 1.6 3.2 0.00 0.00 0.00 74 1011.4
20260509231736 10 111 1.6 4.8 0.00 0.00 0.00 74 1011.5
20260509231637 10 111 1.6 4.8 0.00 0.00 0.00 74 1011.5
20260509231535 11 111 1.6 4.8 0.00 0.00 0.00 73 1011.5
20260509231435 11 111 1.6 6.4 0.00 0.00 0.00 73 1011.5
20260509231330 11 111 1.6 6.4 0.00 0.00 0.00 73 1011.5
20260509231234 11 111 1.6 6.4 0.00 0.00 0.00 73 1011.5
20260509231135 11 111 1.6 6.4 0.00 0.00 0.00 73 1011.5
20260509231033 11 111 1.6 6.4 0.00 0.00 0.00 73 1011.5
20260509230933 11 111 1.6 6.4 0.00 0.00 0.00 73 1011.6
20260509230829 11 111 1.6 6.4 0.00 0.00 0.00 73 1011.5
20260509230733 11 111 1.6 6.4 0.00 0.00 0.00 73 1011.5
20260509230631 11 111 1.6 6.4 0.00 0.00 0.00 73 1011.5
20260509230531 11 112 1.6 6.4 0.00 0.00 0.00 73 1011.5
20260509230430 11 114 1.6 6.4 0.00 0.00 0.00 72 1011.5
20260509230331 11 134 1.6 3.2 0.00 0.00 0.00 72 1011.5
20260509230230 11 135 1.6 3.2 0.00 0.00 0.00 72 1011.5
20260509230130 11 135 1.6 3.2 0.00 0.00 0.00 72 1011.5
20260509230029 11 136 1.6 3.2 0.00 0.00 0.00 72 1011.5
20260509225928 11 136 1.6 4.8 0.00 0.00 0.00 72 1011.5
20260509225829 11 136 1.6 4.8 0.00 0.00 0.00 72 1011.5
20260509225729 11 136 1.6 4.8 0.00 0.00 0.00 72 1011.5
20260509225629 11 136 1.6 4.8 0.00 0.00 0.00 72 1011.6
20260509225529 11 136 1.6 4.8 0.00 0.00 0.00 71 1011.6
20260509225428 11 137 1.6 4.8 0.00 0.00 0.00 71 1011.6
20260509225329 11 137 1.6 4.8 0.00 0.00 0.00 71 1011.6
20260509225229 11 137 1.6 4.8 0.00 0.00 0.00 71 1011.6
20260509225129 11 137 1.6 4.8 0.00 0.00 0.00 71 1011.6
20260509225029 11 137 1.6 4.8 0.00 0.00 0.00 70 1011.6
20260509224929 11 137 1.6 4.8 0.00 0.00 0.00 70 1011.6
20260509224829 11 138 1.6 4.8 0.00 0.00 0.00 70 1011.6
20260509224728 11 138 1.6 4.8 0.00 0.00 0.00 70 1011.7
20260509224628 11 138 1.6 4.8 0.00 0.00 0.00 70 1011.7
20260509224529 11 138 1.6 4.8 0.00 0.00 0.00 70 1011.6
20260509224429 11 138 1.6 4.8 0.00 0.00 0.00 70 1011.7
20260509224329 11 138 1.6 4.8 0.00 0.00 0.00 70 1011.7
20260509224228 12 138 1.6 4.8 0.00 0.00 0.00 70 1011.7
20260509224128 12 138 1.6 4.8 0.00 0.00 0.00 70 1011.7
20260509224028 12 138 1.6 3.2 0.00 0.00 0.00 70 1011.7
20260509223929 12 138 1.6 3.2 0.00 0.00 0.00 70 1011.7
20260509223829 12 138 1.6 3.2 0.00 0.00 0.00 70 1011.7
20260509223729 12 138 1.6 3.2 0.00 0.00 0.00 70 1011.7
20260509223629 12 138 1.6 3.2 0.00 0.00 0.00 69 1011.7
20260509223528 12 138 1.6 3.2 0.00 0.00 0.00 69 1011.7
20260509223429 12 138 1.6 3.2 0.00 0.00 0.00 69 1011.7
20260509223328 12 138 1.6 3.2 0.00 0.00 0.00 69 1011.7
20260509223127 12 138 1.6 3.2 0.00 0.00 0.00 69 1011.6
20260509223027 12 138 1.6 3.2 0.00 0.00 0.00 69 1011.7
20260509222927 12 138 1.6 3.2 0.00 0.00 0.00 68 1011.7
20260509222827 12 138 1.6 3.2 0.00 0.00 0.00 68 1011.7
20260509222726 12 138 1.6 3.2 0.00 0.00 0.00 68 1011.7
20260509222626 12 138 1.6 3.2 0.00 0.00 0.00 68 1011.7
20260509222526 12 138 1.6 3.2 0.00 0.00 0.00 68 1011.6
20260509222426 12 138 1.6 4.8 0.00 0.00 0.00 67 1011.7
20260509222325 12 138 1.6 4.8 0.00 0.00 0.00 67 1011.7
20260509222224 12 138 3.2 4.8 0.00 0.00 0.00 68 1011.7
20260509222122 12 138 3.2 4.8 0.00 0.00 0.00 67 1011.7
20260509222022 12 138 3.2 6.4 0.00 0.00 0.00 67 1011.6
20260509221921 12 138 3.2 6.4 0.00 0.00 0.00 67 1011.7
20260509221819 12 138 3.2 6.4 0.00 0.00 0.00 67 1011.7
20260509221719 12 138 3.2 6.4 0.00 0.00 0.00 67 1011.7
20260509221619 12 138 3.2 6.4 0.00 0.00 0.00 67 1011.7
20260509221517 12 138 3.2 6.4 0.00 0.00 0.00 66 1011.7
20260509221417 12 138 4.8 8.0 0.00 0.00 0.00 66 1011.7
20260509221316 12 137 4.8 8.0 0.00 0.00 0.00 66 1011.7
20260509221217 13 137 4.8 8.0 0.00 0.00 0.00 66 1011.7
20260509221116 13 137 4.8 8.0 0.00 0.00 0.00 66 1011.7
20260509221016 13 136 4.8 8.0 0.00 0.00 0.00 66 1011.7
20260509220914 13 133 4.8 8.0 0.00 0.00 0.00 66 1011.7
20260509220815 13 132 4.8 8.0 0.00 0.00 0.00 66 1011.7
20260509220715 13 132 4.8 8.0 0.00 0.00 0.00 66 1011.7
20260509220615 13 128 4.8 8.0 0.00 0.00 0.00 66 1011.7
20260509220543 13 148 3.2 8.0 0.00 0.00 0.00 66 1011.7
20260509220533 13 143 4.8 8.0 0.00 0.00 0.00 66 1011.7
20260509220529 13 144 3.2 8.0 0.00 0.00 0.00 66 1011.7
20260509220312 13 148 3.2 8.0 0.00 0.00 0.00 66 1011.7
20260509220213 13 146 3.2 8.0 0.00 0.00 0.00 66 1011.7
20260509220113 13 148 4.8 8.0 0.00 0.00 0.00 66 1011.7
20260509220012 13 176 4.8 11.3 0.00 0.00 0.00 66 1011.6
20260509215910 13 156 4.8 11.3 0.00 0.00 0.00 66 1011.7
20260509215809 13 171 4.8 11.3 0.00 0.00 0.00 66 1011.6
20260509215709 13 148 4.8 11.3 0.00 0.00 0.00 66 1011.7
20260509215610 13 165 4.8 11.3 0.00 0.00 0.00 66 1011.6
20260509215510 13 148 4.8 11.3 0.00 0.00 0.00 66 1011.6
20260509215410 13 145 4.8 11.3 0.00 0.00 0.00 66 1011.6
20260509215316 13 155 4.8 11.3 0.00 0.00 0.00 66 1011.6
20260509215310 13 156 4.8 11.3 0.00 0.00 0.00 66 1011.6
20260509215209 13 144 4.8 11.3 0.00 0.00 0.00 66 1011.6
20260509215109 13 143 4.8 11.3 0.00 0.00 0.00 66 1011.7
20260509215009 13 151 4.8 11.3 0.00 0.00 0.00 66 1011.6
20260509214910 13 136 4.8 8.0 0.00 0.00 0.00 66 1011.6
20260509214816 13 146 4.8 8.0 0.00 0.00 0.00 66 1011.7
20260509214803 13 141 4.8 8.0 0.00 0.00 0.00 66 1011.7
20260509214704 13 164 4.8 8.0 0.00 0.00 0.00 66 1011.6
20260509214603 13 152 4.8 8.0 0.00 0.00 0.00 66 1011.7
20260509214544 13 149 4.8 9.7 0.00 0.00 0.00 66 1011.7
20260509214531 13 144 4.8 9.7 0.00 0.00 0.00 66 1011.6
20260509214527 13 138 4.8 9.7 0.00 0.00 0.00 66 1011.7
20260509214303 13 148 4.8 9.7 0.00 0.00 0.00 66 1011.7
20260509214203 13 142 4.8 9.7 0.00 0.00 0.00 65 1011.7
20260509214103 13 159 4.8 9.7 0.00 0.00 0.00 66 1011.7
20260509214003 13 148 4.8 9.7 0.00 0.00 0.00 66 1011.6
20260509213904 13 152 3.2 9.7 0.00 0.00 0.00 65 1011.7
20260509213816 13 150 3.2 9.7 0.00 0.00 0.00 65 1011.7
20260509213804 13 149 3.2 9.7 0.00 0.00 0.00 65 1011.7
20260509213701 13 150 3.2 9.7 0.00 0.00 0.00 65 1011.7
20260509213601 13 155 3.2 9.7 0.00 0.00 0.00 65 1011.7
20260509213534 13 148 3.2 9.7 0.00 0.00 0.00 65 1011.7
20260509213529 13 155 3.2 9.7 0.00 0.00 0.00 65 1011.7
20260509213524 13 157 3.2 9.7 0.00 0.00 0.00 65 1011.7
20260509213301 13 150 3.2 9.7 0.00 0.00 0.00 65 1011.7
20260509213201 13 150 3.2 9.7 0.00 0.00 0.00 64 1011.7
20260509213101 13 153 3.2 9.7 0.00 0.00 0.00 65 1011.7
20260509213001 13 145 3.2 9.7 0.00 0.00 0.00 64 1011.7
20260509212902 13 138 3.2 9.7 0.00 0.00 0.00 64 1011.7
20260509212814 14 134 3.2 9.7 0.00 0.00 0.00 64 1011.7
20260509212801 14 132 3.2 9.7 0.00 0.00 0.00 64 1011.7
20260509212701 14 122 3.2 9.7 0.00 0.00 0.00 64 1011.7
20260509212601 14 122 3.2 9.7 0.00 0.00 0.00 64 1011.7
20260509212501 14 115 3.2 9.7 0.00 0.00 0.00 64 1011.7
20260509212401 14 132 3.2 9.7 0.00 0.00 0.00 64 1011.7
20260509212301 14 132 3.2 9.7 0.00 0.00 0.00 64 1011.7
20260509212201 14 123 3.2 9.7 0.00 0.00 0.00 64 1011.7
20260509212101 14 123 3.2 9.7 0.00 0.00 0.00 63 1011.7
20260509212001 14 123 3.2 9.7 0.00 0.00 0.00 63 1011.7
20260509211901 14 115 3.2 9.7 0.00 0.00 0.00 63 1011.8
20260509211814 14 141 3.2 9.7 0.00 0.00 0.00 64 1011.8
20260509211801 14 138 3.2 9.7 0.00 0.00 0.00 63 1011.8
20260509211700 14 111 3.2 9.7 0.00 0.00 0.00 63 1011.8
20260509211600 14 123 3.2 9.7 0.00 0.00 0.00 63 1011.8
20260509211536 14 89 3.2 11.3 0.00 0.00 0.00 63 1011.8
20260509211528 14 119 3.2 11.3 0.00 0.00 0.00 63 1011.8
20260509211524 14 109 3.2 11.3 0.00 0.00 0.00 63 1011.8
20260509211301 14 111 3.2 11.3 0.00 0.00 0.00 63 1011.8
20260509211201 14 115 3.2 11.3 0.00 0.00 0.00 63 1011.8
20260509211100 14 110 3.2 11.3 0.00 0.00 0.00 63 1011.8
20260509211000 14 111 3.2 11.3 0.00 0.00 0.00 63 1011.8
20260509210900 14 91 3.2 11.3 0.00 0.00 0.00 64 1011.8
20260509210800 14 107 3.2 11.3 0.00 0.00 0.00 64 1011.8
20260509210701 14 94 3.2 11.3 0.00 0.00 0.00 63 1011.9
20260509210601 14 120 3.2 12.9 0.00 0.00 0.00 63 1011.8
20260509210501 14 98 3.2 12.9 0.00 0.00 0.00 64 1011.8
20260509210401 14 110 3.2 12.9 0.00 0.00 0.00 63 1011.8
20260509210313 14 104 3.2 12.9 0.00 0.00 0.00 63 1011.8
20260509210301 14 98 3.2 12.9 0.00 0.00 0.00 63 1011.8
20260509210202 14 97 3.2 12.9 0.00 0.00 0.00 63 1011.9
20260509210001 14 75 3.2 12.9 0.00 0.00 0.00 63 1011.9
20260509205901 14 111 3.2 12.9 0.00 0.00 0.00 63 1011.9
20260509205813 14 98 3.2 12.9 0.00 0.00 0.00 63 1011.9
20260509205801 14 111 3.2 12.9 0.00 0.00 0.00 63 1011.9
20260509205701 14 111 3.2 12.9 0.00 0.00 0.00 63 1011.9
20260509205601 14 111 3.2 9.7 0.00 0.00 0.00 63 1011.9
20260509205501 14 105 3.2 9.7 0.00 0.00 0.00 63 1011.9
20260509205401 14 93 3.2 9.7 0.00 0.00 0.00 63 1011.9
20260509205314 14 91 3.2 9.7 0.00 0.00 0.00 63 1011.9
20260509205300 15 76 3.2 9.7 0.00 0.00 0.00 63 1011.9
20260509205201 15 115 1.6 6.4 0.00 0.00 0.00 63 1011.9
20260509205057 15 89 1.6 6.4 0.00 0.00 0.00 63 1011.9
20260509205039 15 108 3.2 9.7 0.00 0.00 0.00 63 1011.9
20260509205029 15 88 3.2 9.7 0.00 0.00 0.00 63 1011.9
20260509205027 15 88 3.2 9.7 0.00 0.00 0.00 63 1011.9
20260509204757 15 111 3.2 9.7 0.00 0.00 0.00 63 1011.9
20260509204657 15 112 3.2 9.7 0.00 0.00 0.00 63 1011.9
20260509204557 15 113 3.2 9.7 0.00 0.00 0.00 63 1011.9
20260509204458 15 117 3.2 9.7 0.00 0.00 0.00 63 1011.9
20260509204358 15 117 3.2 9.7 0.00 0.00 0.00 63 1011.9
20260509204313 15 96 3.2 9.7 0.00 0.00 0.00 63 1011.9
20260509204258 15 90 3.2 9.7 0.00 0.00 0.00 63 1011.9
20260509204158 15 107 3.2 9.7 0.00 0.00 0.00 62 1011.9
20260509204058 15 115 3.2 9.7 0.00 0.00 0.00 63 1011.9
20260509203958 15 112 3.2 9.7 0.00 0.00 0.00 62 1011.9
20260509203858 15 112 3.2 9.7 0.00 0.00 0.00 62 1011.9
20260509203814 15 108 3.2 9.7 0.00 0.00 0.00 62 1011.9
20260509203757 15 86 3.2 9.7 0.00 0.00 0.00 62 1011.9
20260509203658 15 101 1.6 6.4 0.00 0.00 0.00 62 1011.9
20260509203558 15 106 3.2 6.4 0.00 0.00 0.00 62 1011.9
20260509203458 15 101 3.2 6.4 0.00 0.00 0.00 62 1011.9
20260509203357 15 102 3.2 6.4 0.00 0.00 0.00 62 1011.9
20260509203312 15 95 3.2 6.4 0.00 0.00 0.00 62 1011.9
20260509203258 15 103 3.2 6.4 0.00 0.00 0.00 62 1011.9
20260509203153 15 89 3.2 6.4 0.00 0.00 0.00 62 1011.9
20260509203053 15 89 3.2 6.4 0.00 0.00 0.00 62 1011.9
20260509202953 15 104 3.2 6.4 0.00 0.00 0.00 62 1012.0
20260509202853 15 75 3.2 6.4 0.00 0.00 0.00 62 1012.0
20260509202811 15 89 3.2 9.7 0.00 0.00 0.00 62 1012.0
20260509202800 15 98 3.2 9.7 0.00 0.00 0.00 61 1012.1
20260509202756 15 90 3.2 9.7 0.00 0.00 0.00 62 1012.0
20260509202747 15 113 3.2 9.7 0.00 0.00 0.00 61 1012.0
20260509202743 15 96 3.2 9.7 0.00 0.00 0.00 61 1012.0
20260509202526 15 96 3.2 9.7 0.00 0.00 0.00 61 1012.0
20260509202522 15 96 3.2 9.7 0.00 0.00 0.00 61 1012.1
20260509202254 15 106 3.2 9.7 0.00 0.00 0.00 61 1012.0
20260509202153 15 65 3.2 9.7 0.00 0.00 0.00 61 1012.0
20260509202053 15 57 3.2 9.7 0.00 0.00 0.00 60 1012.1
20260509201945 15 116 3.2 9.7 0.00 0.00 0.00 60 1012.1
20260509201844 15 91 3.2 9.7 0.00 0.00 0.00 60 1012.1
20260509201811 15 107 3.2 9.7 0.00 0.00 0.00 60 1012.1
20260509201743 15 63 3.2 9.7 0.00 0.00 0.00 60 1012.1
20260509201641 15 90 3.2 6.4 0.00 0.00 0.00 60 1012.0
20260509201539 15 107 3.2 6.4 0.00 0.00 0.00 60 1012.1
20260509201533 15 116 3.2 8.0 0.00 0.00 0.00 60 1012.1
20260509201526 15 92 3.2 6.4 0.00 0.00 0.00 60 1012.1
20260509201522 15 68 3.2 6.4 0.00 0.00 0.00 60 1012.1
20260509201237 15 89 3.2 9.7 0.00 0.00 0.00 60 1012.1
20260509201136 15 98 3.2 9.7 0.00 0.00 0.00 60 1012.1
20260509201034 15 72 3.2 9.7 0.00 0.00 0.00 59 1012.1
20260509200932 15 79 3.2 9.7 0.00 0.00 0.00 59 1012.1
20260509200829 15 93 3.2 9.7 0.00 0.00 0.00 59 1012.1
20260509200809 15 94 3.2 9.7 0.00 0.00 0.00 59 1012.1
20260509200729 16 86 3.2 9.7 0.00 0.00 0.00 59 1012.1
20260509200629 16 87 3.2 9.7 0.00 0.00 0.00 59 1012.1
20260509200530 16 109 3.2 9.7 0.00 0.00 0.00 59 1012.1
20260509200430 16 97 3.2 9.7 0.00 0.00 0.00 59 1012.1
20260509200330 16 84 3.2 9.7 0.00 0.00 0.00 59 1012.1
20260509200309 16 105 3.2 9.7 0.00 0.00 0.00 59 1012.1
20260509200229 16 78 3.2 9.7 0.00 0.00 0.00 59 1012.1
20260509200129 16 82 3.2 9.7 0.00 0.00 0.00 59 1012.1
20260509200028 16 101 3.2 9.7 0.00 0.00 0.00 59 1012.1
20260509195929 16 96 3.2 6.4 0.00 0.00 0.00 59 1012.3
20260509195807 16 101 3.2 6.4 0.00 0.00 0.00 59 1012.1
20260509195729 16 107 3.2 6.4 0.00 0.00 0.00 59 1012.1
20260509195629 16 96 3.2 6.4 0.00 0.00 0.00 58 1012.1
20260509195533 16 88 3.2 9.7 0.00 0.00 0.00 58 1012.1
20260509195529 16 109 3.2 6.4 0.00 0.00 0.00 58 1012.1
20260509195522 16 99 3.2 9.7 0.00 0.00 0.00 58 1012.1
20260509195518 16 103 3.2 9.7 0.00 0.00 0.00 58 1012.1
20260509195229 16 124 3.2 9.7 0.00 0.00 0.00 58 1012.0
20260509195129 16 126 3.2 9.7 0.00 0.00 0.00 58 1012.0
20260509195028 16 86 3.2 9.7 0.00 0.00 0.00 58 1012.0
20260509194928 16 119 3.2 11.3 0.00 0.00 0.00 58 1012.0
20260509194828 16 90 3.2 11.3 0.00 0.00 0.00 58 1012.0
20260509194806 16 89 3.2 11.3 0.00 0.00 0.00 58 1012.0
20260509194729 16 86 3.2 11.3 0.00 0.00 0.00 58 1012.0
20260509194629 16 55 1.6 11.3 0.00 0.00 0.00 58 1012.0
20260509194530 16 106 1.6 11.3 0.00 0.00 0.00 57 1012.0
20260509194429 16 86 1.6 11.3 0.00 0.00 0.00 57 1012.0
20260509194329 16 74 1.6 11.3 0.00 0.00 0.00 57 1012.0
20260509194305 16 117 1.6 11.3 0.00 0.00 0.00 57 1012.0
20260509194229 16 113 1.6 11.3 0.00 0.00 0.00 57 1011.9
20260509194129 16 94 1.6 11.3 0.00 0.00 0.00 57 1012.0
20260509194029 16 95 1.6 11.3 0.00 0.00 0.00 57 1011.9
20260509193929 16 94 1.6 9.7 0.00 0.00 0.00 57 1011.9
20260509193829 16 106 1.6 9.7 0.00 0.00 0.00 57 1011.9
20260509193802 16 119 1.6 9.7 0.00 0.00 0.00 57 1011.9
20260509193729 16 104 1.6 9.7 0.00 0.00 0.00 57 1011.9
20260509193629 16 103 1.6 9.7 0.00 0.00 0.00 57 1011.9
20260509193529 16 98 1.6 9.7 0.00 0.00 0.00 57 1011.9
20260509193430 16 100 1.6 9.7 0.00 0.00 0.00 57 1011.9
20260509193301 16 111 1.6 9.7 0.00 0.00 0.00 57 1011.9
20260509193229 16 103 1.6 9.7 0.00 0.00 0.00 57 1011.9
20260509193129 16 99 1.6 8.0 0.00 0.00 0.00 57 1011.9
20260509193029 16 78 1.6 8.0 0.00 0.00 0.00 57 1011.9
20260509192929 16 100 1.6 8.0 0.00 0.00 0.00 57 1011.9
20260509192801 16 101 1.6 8.0 0.00 0.00 0.00 57 1011.9
20260509192729 16 113 1.6 8.0 0.00 0.00 0.00 57 1011.9
20260509192629 16 113 1.6 8.0 0.00 0.00 0.00 56 1011.9
20260509192529 16 99 1.6 8.0 0.00 0.00 0.00 56 1011.9
20260509192429 16 77 1.6 8.0 0.00 0.00 0.00 56 1011.9
20260509192328 16 96 1.6 6.4 0.00 0.00 0.00 56 1011.8
20260509192305 16 95 1.6 8.0 0.00 0.00 0.00 56 1011.9
20260509192229 16 94 1.6 8.0 0.00 0.00 0.00 56 1011.9
20260509192129 16 96 3.2 11.3 0.00 0.00 0.00 56 1011.8
20260509192029 16 95 3.2 11.3 0.00 0.00 0.00 56 1011.8
20260509191929 16 136 3.2 11.3 0.00 0.00 0.00 56 1011.8
20260509191829 16 81 3.2 11.3 0.00 0.00 0.00 56 1011.8
20260509191800 16 89 3.2 11.3 0.00 0.00 0.00 56 1011.8
20260509191729 16 84 3.2 11.3 0.00 0.00 0.00 56 1011.8
20260509191628 16 86 3.2 11.3 0.00 0.00 0.00 56 1011.8
20260509191528 16 100 3.2 11.3 0.00 0.00 0.00 56 1011.8
20260509191428 16 107 3.2 11.3 0.00 0.00 0.00 56 1011.8
20260509191328 16 109 3.2 11.3 0.00 0.00 0.00 56 1011.8
20260509191300 16 74 3.2 11.3 0.00 0.00 0.00 56 1011.8
20260509191229 16 96 3.2 11.3 0.00 0.00 0.00 56 1011.7
20260509191129 16 92 1.6 8.0 0.00 0.00 0.00 56 1011.8
20260509191029 17 79 1.6 8.0 0.00 0.00 0.00 55 1011.8
20260509190930 17 71 1.6 8.0 0.00 0.00 0.00 56 1011.8
20260509190829 17 94 1.6 8.0 0.00 0.00 0.00 55 1011.8
20260509190801 17 95 1.6 8.0 0.00 0.00 0.00 56 1011.8
20260509190729 17 134 1.6 8.0 0.00 0.00 0.00 56 1011.8
20260509190629 17 93 1.6 8.0 0.00 0.00 0.00 55 1011.7
20260509190529 17 105 1.6 6.4 0.00 0.00 0.00 55 1011.7
20260509190429 17 115 1.6 6.4 0.00 0.00 0.00 55 1011.7
20260509190329 17 116 1.6 6.4 0.00 0.00 0.00 55 1011.7
20260509190301 17 101 1.6 6.4 0.00 0.00 0.00 55 1011.7
20260509190229 17 100 1.6 6.4 0.00 0.00 0.00 55 1011.7
20260509190129 17 90 1.6 6.4 0.00 0.00 0.00 55 1011.7
20260509190029 17 103 1.6 6.4 0.00 0.00 0.00 55 1011.7
20260509185929 17 95 1.6 6.4 0.00 0.00 0.00 55 1011.7
20260509185829 17 96 1.6 6.4 0.00 0.00 0.00 55 1011.7
20260509185801 17 95 1.6 6.4 0.00 0.00 0.00 55 1011.7
20260509185749 17 97 3.2 8.0 0.00 0.00 0.00 54 1011.7
20260509185745 17 109 1.6 6.4 0.00 0.00 0.00 55 1011.7
20260509185741 17 96 3.2 6.4 0.00 0.00 0.00 55 1011.7
20260509185733 17 104 3.2 6.4 0.00 0.00 0.00 54 1011.8
20260509185515 17 103 3.2 6.4 0.00 0.00 0.00 54 1011.7
20260509185511 17 107 3.2 8.0 0.00 0.00 0.00 54 1011.7
20260509185229 17 82 3.2 8.0 0.00 0.00 0.00 54 1011.7
20260509185130 17 78 3.2 8.0 0.00 0.00 0.00 54 1011.7
20260509185028 17 70 3.2 8.0 0.00 0.00 0.00 54 1011.7
20260509184928 17 92 1.6 8.0 0.00 0.00 0.00 54 1011.8
20260509184828 17 90 1.6 8.0 0.00 0.00 0.00 54 1011.8
20260509184801 17 94 1.6 8.0 0.00 0.00 0.00 54 1011.8
20260509184729 17 94 1.6 8.0 0.00 0.00 0.00 54 1011.8
20260509184629 17 86 1.6 8.0 0.00 0.00 0.00 53 1011.8
20260509184529 17 96 1.6 8.0 0.00 0.00 0.00 54 1011.7
20260509184428 17 94 1.6 8.0 0.00 0.00 0.00 54 1011.7
20260509184328 17 111 1.6 6.4 0.00 0.00 0.00 53 1011.8
20260509184301 17 115 1.6 6.4 0.00 0.00 0.00 53 1011.8
20260509184228 17 111 1.6 6.4 0.00 0.00 0.00 53 1011.8
20260509184128 17 85 1.6 6.4 0.00 0.00 0.00 53 1011.7
20260509184028 17 99 1.6 6.4 0.00 0.00 0.00 53 1011.7
20260509183925 17 98 1.6 6.4 0.00 0.00 0.00 53 1011.7
20260509183823 18 98 1.6 6.4 0.00 0.00 0.00 53 1011.7
20260509183802 18 99 1.6 6.4 0.00 0.00 0.00 53 1011.7
20260509183723 18 99 1.6 6.4 0.00 0.00 0.00 53 1011.7
20260509183626 18 98 1.6 6.4 0.00 0.00 0.00 53 1011.7
20260509183522 18 89 1.6 6.4 0.00 0.00 0.00 52 1011.7
20260509183421 18 90 1.6 6.4 0.00 0.00 0.00 53 1011.7
20260509183321 18 105 1.6 8.0 0.00 0.00 0.00 53 1011.7
20260509183301 18 112 1.6 8.0 0.00 0.00 0.00 52 1011.7
20260509183221 18 105 1.6 8.0 0.00 0.00 0.00 52 1011.6
20260509183123 18 99 1.6 8.0 0.00 0.00 0.00 52 1011.6
20260509183017 18 94 1.6 8.0 0.00 0.00 0.00 52 1011.6
20260509182912 18 107 1.6 8.0 0.00 0.00 0.00 52 1011.6
20260509182811 18 122 1.6 8.0 0.00 0.00 0.00 52 1011.6
20260509182801 18 121 1.6 8.0 0.00 0.00 0.00 52 1011.6
20260509182711 18 123 1.6 8.0 0.00 0.00 0.00 52 1011.6
20260509182611 18 123 1.6 8.0 0.00 0.00 0.00 52 1011.7
20260509182511 18 85 1.6 8.0 0.00 0.00 0.00 52 1011.6
20260509182406 18 72 1.6 8.0 0.00 0.00 0.00 52 1011.7
20260509182307 18 82 1.6 6.4 0.00 0.00 0.00 52 1011.7
20260509182301 18 104 1.6 6.4 0.00 0.00 0.00 52 1011.7
20260509182205 18 99 1.6 6.4 0.00 0.00 0.00 52 1011.7
20260509182105 18 95 1.6 6.4 0.00 0.00 0.00 52 1011.7
20260509182005 18 96 1.6 6.4 0.00 0.00 0.00 52 1011.7
20260509181905 18 96 1.6 6.4 0.00 0.00 0.00 51 1011.7
20260509181805 18 82 1.6 6.4 0.00 0.00 0.00 51 1011.7
20260509181801 18 101 1.6 6.4 0.00 0.00 0.00 51 1011.7
20260509181705 18 101 1.6 6.4 0.00 0.00 0.00 51 1011.7
20260509181606 18 90 1.6 6.4 0.00 0.00 0.00 51 1011.7
20260509181506 18 90 1.6 6.4 0.00 0.00 0.00 51 1011.7
20260509181405 18 88 1.6 6.4 0.00 0.00 0.00 51 1011.6
20260509181300 18 85 1.6 6.4 0.00 0.00 0.00 51 1011.7
20260509181203 18 83 1.6 6.4 0.00 0.00 0.00 51 1011.7
20260509181103 19 83 1.6 6.4 0.00 0.00 0.00 52 1011.7
20260509181001 19 100 1.6 6.4 0.00 0.00 0.00 51 1011.7
20260509180901 19 108 1.6 11.3 0.00 0.00 0.00 51 1011.7
20260509180801 19 90 1.6 11.3 0.00 0.00 0.00 51 1011.6
20260509180701 19 98 3.2 11.3 0.00 0.00 0.00 51 1011.7
20260509180601 19 98 3.2 11.3 0.00 0.00 0.00 51 1011.6
20260509180501 19 94 3.2 11.3 0.00 0.00 0.00 50 1011.7
20260509180401 19 91 3.2 11.3 0.00 0.00 0.00 50 1011.7
20260509180302 19 90 3.2 12.9 0.00 0.00 0.00 50 1011.6
20260509180201 19 131 3.2 12.9 0.00 0.00 0.00 50 1011.6
20260509180001 19 97 3.2 12.9 0.00 0.00 0.00 50 1011.6
20260509175901 19 37 3.2 14.5 0.00 0.00 0.00 49 1011.6
20260509175801 19 112 3.2 14.5 0.00 0.00 0.00 49 1011.6
20260509175701 19 130 3.2 14.5 0.00 0.00 0.00 49 1011.6
20260509175600 19 80 3.2 14.5 0.00 0.00 0.00 49 1011.6
20260509175500 19 96 3.2 14.5 0.00 0.00 0.00 49 1011.6
20260509175400 19 88 3.2 14.5 0.00 0.00 0.00 49 1011.6
20260509175301 19 81 3.2 14.5 0.00 0.00 0.00 49 1011.6
20260509175201 19 91 3.2 14.5 0.00 0.00 0.00 49 1011.6
20260509175101 19 109 3.2 14.5 0.00 0.00 0.00 48 1011.6
20260509175020 19 108 3.2 14.5 0.00 0.00 0.00 48 1011.6
20260509175016 19 108 3.2 11.3 0.00 0.00 0.00 48 1011.6
20260509175012 19 107 3.2 11.3 0.00 0.00 0.00 48 1011.6
20260509174701 20 91 3.2 11.3 0.00 0.00 0.00 48 1011.6
20260509174606 20 106 3.2 11.3 0.00 0.00 0.00 48 1011.6
20260509174501 20 97 3.2 11.3 0.00 0.00 0.00 48 1011.6
20260509174401 20 84 3.2 11.3 0.00 0.00 0.00 48 1011.6
20260509174301 20 114 3.2 11.3 0.00 0.00 0.00 48 1011.6
20260509174200 20 82 3.2 11.3 0.00 0.00 0.00 48 1011.6
20260509174103 20 133 3.2 11.3 0.00 0.00 0.00 48 1011.6
20260509174001 20 73 1.6 11.3 0.00 0.00 0.00 48 1011.6
20260509173901 20 67 1.6 11.3 0.00 0.00 0.00 48 1011.6
20260509173800 20 67 1.6 11.3 0.00 0.00 0.00 48 1011.6
20260509173701 20 67 1.6 11.3 0.00 0.00 0.00 48 1011.6
20260509173601 20 82 1.6 11.3 0.00 0.00 0.00 47 1011.6
20260509173501 20 83 3.2 11.3 0.00 0.00 0.00 47 1011.6
20260509173402 20 82 3.2 11.3 0.00 0.00 0.00 48 1011.6
20260509173301 20 104 3.2 11.3 0.00 0.00 0.00 48 1011.5
20260509173201 20 103 3.2 11.3 0.00 0.00 0.00 47 1011.6
20260509173101 20 79 3.2 11.3 0.00 0.00 0.00 48 1011.5
20260509173001 20 92 3.2 11.3 0.00 0.00 0.00 48 1011.6
20260509172901 20 78 3.2 11.3 0.00 0.00 0.00 48 1011.6
20260509172801 20 38 3.2 9.7 0.00 0.00 0.00 47 1011.6
20260509172701 20 38 3.2 9.7 0.00 0.00 0.00 47 1011.6
20260509172601 20 121 3.2 9.7 0.00 0.00 0.00 47 1011.5
20260509172501 20 107 3.2 14.5 0.00 0.00 0.00 47 1011.5
20260509172401 20 98 3.2 14.5 0.00 0.00 0.00 47 1011.5
20260509172300 20 71 3.2 14.5 0.00 0.00 0.00 47 1011.6
20260509172200 20 57 3.2 14.5 0.00 0.00 0.00 47 1011.6
20260509172100 20 90 3.2 14.5 0.00 0.00 0.00 47 1011.6
20260509172020 20 100 3.2 14.5 0.00 0.00 0.00 47 1011.6
20260509172016 20 88 3.2 14.5 0.00 0.00 0.00 47 1011.6
20260509172012 20 108 3.2 14.5 0.00 0.00 0.00 46 1011.6
20260509171701 20 108 3.2 14.5 0.00 0.00 0.00 47 1011.6
20260509171601 20 73 3.2 14.5 0.00 0.00 0.00 47 1011.6
20260509171500 20 96 3.2 12.9 0.00 0.00 0.00 47 1011.6
20260509171400 20 89 3.2 12.9 0.00 0.00 0.00 47 1011.6
20260509171300 20 90 3.2 12.9 0.00 0.00 0.00 47 1011.6
20260509171201 20 59 1.6 12.9 0.00 0.00 0.00 47 1011.5
20260509171101 20 86 1.6 6.4 0.00 0.00 0.00 46 1011.5
20260509171001 20 94 1.6 6.4 0.00 0.00 0.00 46 1011.6
20260509170901 20 102 1.6 6.4 0.00 0.00 0.00 46 1011.6
20260509170801 20 73 1.6 6.4 0.00 0.00 0.00 46 1011.5
20260509170701 20 68 1.6 6.4 0.00 0.00 0.00 45 1011.6
20260509170601 20 67 1.6 6.4 0.00 0.00 0.00 45 1011.6
20260509170502 20 84 1.6 11.3 0.00 0.00 0.00 45 1011.6
20260509170400 20 91 1.6 11.3 0.00 0.00 0.00 45 1011.5
20260509170301 20 86 1.6 11.3 0.00 0.00 0.00 44 1011.5
20260509170201 20 84 1.6 11.3 0.00 0.00 0.00 45 1011.5
20260509170001 20 101 3.2 11.3 0.00 0.00 0.00 45 1011.5
20260509165901 20 95 3.2 11.3 0.00 0.00 0.00 44 1011.5
20260509165801 20 67 3.2 11.3 0.00 0.00 0.00 45 1011.5
20260509165701 20 48 3.2 11.3 0.00 0.00 0.00 44 1011.5
20260509165600 20 98 3.2 11.3 0.00 0.00 0.00 44 1011.5
20260509165501 20 109 3.2 11.3 0.00 0.00 0.00 44 1011.5
20260509165401 20 85 3.2 14.5 0.00 0.00 0.00 45 1011.5
20260509165301 20 88 4.8 14.5 0.00 0.00 0.00 45 1011.5
20260509165200 20 85 4.8 14.5 0.00 0.00 0.00 44 1011.5
20260509165100 20 87 4.8 14.5 0.00 0.00 0.00 44 1011.6
20260509165001 20 89 4.8 16.1 0.00 0.00 0.00 44 1011.5
20260509164901 20 103 4.8 16.1 0.00 0.00 0.00 44 1011.6
20260509164801 20 86 4.8 16.1 0.00 0.00 0.00 44 1011.6
20260509164701 21 205 4.8 16.1 0.00 0.00 0.00 44 1011.6
20260509164601 21 82 4.8 16.1 0.00 0.00 0.00 44 1011.6
20260509164501 21 98 4.8 16.1 0.00 0.00 0.00 44 1011.6
20260509164401 21 112 3.2 16.1 0.00 0.00 0.00 44 1011.6
20260509164301 21 77 3.2 16.1 0.00 0.00 0.00 45 1011.6
20260509164201 21 98 4.8 16.1 0.00 0.00 0.00 44 1011.6
20260509164100 21 98 4.8 16.1 0.00 0.00 0.00 44 1011.6
20260509164019 21 120 4.8 16.1 0.00 0.00 0.00 45 1011.6
20260509164015 21 109 4.8 16.1 0.00 0.00 0.00 44 1011.6
20260509164011 21 107 4.8 16.1 0.00 0.00 0.00 44 1011.6
20260509163701 21 55 4.8 16.1 0.00 0.00 0.00 45 1011.6
20260509163601 21 96 4.8 16.1 0.00 0.00 0.00 45 1011.6
20260509163520 21 135 4.8 16.1 0.00 0.00 0.00 45 1011.6
20260509163516 21 67 4.8 16.1 0.00 0.00 0.00 45 1011.6
20260509163512 21 71 4.8 16.1 0.00 0.00 0.00 45 1011.6
20260509163201 21 92 4.8 16.1 0.00 0.00 0.00 46 1011.6
20260509163101 21 80 4.8 16.1 0.00 0.00 0.00 45 1011.6
20260509163001 20 58 4.8 12.9 0.00 0.00 0.00 44 1011.6
20260509162901 20 98 3.2 12.9 0.00 0.00 0.00 45 1011.6
20260509162801 20 91 3.2 12.9 0.00 0.00 0.00 44 1011.7
20260509162701 20 91 3.2 12.9 0.00 0.00 0.00 44 1011.7
20260509162601 20 101 3.2 12.9 0.00 0.00 0.00 45 1011.7
20260509162520 20 76 3.2 11.3 0.00 0.00 0.00 45 1011.7
20260509162516 20 103 1.6 11.3 0.00 0.00 0.00 44 1011.8
20260509162512 20 105 3.2 11.3 0.00 0.00 0.00 44 1011.7
20260509162201 20 91 3.2 11.3 0.00 0.00 0.00 44 1011.7
20260509162101 20 76 3.2 11.3 0.00 0.00 0.00 44 1011.8
20260509162001 20 117 3.2 9.7 0.00 0.00 0.00 44 1011.8
20260509161901 21 110 3.2 9.7 0.00 0.00 0.00 44 1011.8
20260509161801 21 111 3.2 11.3 0.00 0.00 0.00 44 1011.7
20260509161700 21 112 3.2 11.3 0.00 0.00 0.00 43 1011.8
20260509161600 21 114 3.2 11.3 0.00 0.00 0.00 43 1011.8
20260509161501 21 78 3.2 11.3 0.00 0.00 0.00 43 1011.8
20260509161401 21 80 3.2 11.3 0.00 0.00 0.00 43 1011.8
20260509161300 21 93 3.2 11.3 0.00 0.00 0.00 43 1011.8
20260509161200 21 99 3.2 11.3 0.00 0.00 0.00 43 1011.8
20260509161100 21 114 3.2 14.5 0.00 0.00 0.00 42 1011.8
20260509161000 21 42 3.2 14.5 0.00 0.00 0.00 42 1011.8
20260509160901 21 84 3.2 14.5 0.00 0.00 0.00 43 1011.8
20260509160801 21 126 3.2 14.5 0.00 0.00 0.00 42 1011.9
20260509160701 21 85 3.2 14.5 0.00 0.00 0.00 43 1011.9
20260509160601 21 98 3.2 14.5 0.00 0.00 0.00 44 1011.9
20260509160526 21 100 3.2 14.5 0.00 0.00 0.00 42 1011.9
20260509160516 21 99 3.2 14.5 0.00 0.00 0.00 43 1011.8
20260509160512 21 103 3.2 14.5 0.00 0.00 0.00 43 1011.9
20260509160255 21 104 3.2 14.5 0.00 0.00 0.00 42 1011.9
20260509160155 21 92 3.2 14.5 0.00 0.00 0.00 42 1011.8
20260509160055 21 116 3.2 12.9 0.00 0.00 0.00 42 1011.9
20260509155956 21 111 3.2 12.9 0.00 0.00 0.00 42 1011.9
20260509155855 21 129 3.2 12.9 0.00 0.00 0.00 42 1011.9
20260509155801 21 99 3.2 12.9 0.00 0.00 0.00 42 1011.9
20260509155749 21 98 3.2 12.9 0.00 0.00 0.00 42 1011.9
20260509155648 21 93 4.8 12.9 0.00 0.00 0.00 42 1011.9
20260509155548 21 101 4.8 14.5 0.00 0.00 0.00 43 1011.9
20260509155449 21 97 4.8 14.5 0.00 0.00 0.00 42 1011.9
20260509155349 21 97 4.8 14.5 0.00 0.00 0.00 42 1011.9
20260509155301 21 75 4.8 14.5 0.00 0.00 0.00 42 1011.9
20260509155245 21 72 4.8 14.5 0.00 0.00 0.00 42 1011.9
20260509155145 21 72 4.8 14.5 0.00 0.00 0.00 42 1012.0
20260509155044 21 93 4.8 14.5 0.00 0.00 0.00 42 1011.9
20260509154945 21 79 4.8 14.5 0.00 0.00 0.00 41 1012.0
20260509154843 21 101 6.4 14.5 0.00 0.00 0.00 41 1011.9
20260509154800 22 114 6.4 14.5 0.00 0.00 0.00 41 1011.9
20260509154741 22 116 4.8 14.5 0.00 0.00 0.00 41 1011.9
20260509154641 22 86 4.8 14.5 0.00 0.00 0.00 41 1011.9
20260509154541 22 70 4.8 14.5 0.00 0.00 0.00 41 1011.9
20260509154440 22 73 4.8 14.5 0.00 0.00 0.00 41 1011.9
20260509154340 22 113 4.8 14.5 0.00 0.00 0.00 42 1011.9
20260509154301 22 69 4.8 14.5 0.00 0.00 0.00 41 1011.9
20260509154241 22 107 4.8 14.5 0.00 0.00 0.00 41 1011.9
20260509154141 22 55 3.2 14.5 0.00 0.00 0.00 41 1011.9
20260509154041 22 75 3.2 14.5 0.00 0.00 0.00 42 1011.9
20260509153940 22 128 3.2 14.5 0.00 0.00 0.00 41 1011.9
20260509153840 22 82 3.2 14.5 0.00 0.00 0.00 41 1011.9
20260509153801 22 84 3.2 14.5 0.00 0.00 0.00 42 1011.9
20260509153741 22 94 3.2 14.5 0.00 0.00 0.00 42 1011.9
20260509153641 22 57 3.2 14.5 0.00 0.00 0.00 43 1011.9
20260509153541 22 75 3.2 14.5 0.00 0.00 0.00 42 1012.0
20260509153440 22 109 3.2 9.7 0.00 0.00 0.00 41 1011.9
20260509153340 22 109 3.2 9.7 0.00 0.00 0.00 41 1012.0
20260509153301 22 90 3.2 11.3 0.00 0.00 0.00 41 1012.0
20260509153241 22 90 4.8 11.3 0.00 0.00 0.00 40 1012.0
20260509153141 22 90 4.8 12.9 0.00 0.00 0.00 40 1012.0
20260509153037 22 100 4.8 14.5 0.00 0.00 0.00 40 1012.0
20260509152936 22 111 4.8 16.1 0.00 0.00 0.00 40 1012.0
20260509152836 22 98 4.8 16.1 0.00 0.00 0.00 40 1012.1
20260509152801 22 98 4.8 16.1 0.00 0.00 0.00 40 1012.1
20260509152736 22 89 4.8 16.1 0.00 0.00 0.00 40 1012.1
20260509152634 22 67 4.8 16.1 0.00 0.00 0.00 42 1012.1
20260509152533 22 74 4.8 16.1 0.00 0.00 0.00 42 1012.1
20260509152433 22 77 4.8 16.1 0.00 0.00 0.00 42 1012.1
20260509152333 22 71 4.8 16.1 0.00 0.00 0.00 40 1012.1
20260509152301 22 69 4.8 16.1 0.00 0.00 0.00 40 1012.1
20260509152230 22 31 4.8 16.1 0.00 0.00 0.00 41 1012.1
20260509152130 22 82 4.8 16.1 0.00 0.00 0.00 41 1012.1
20260509152030 22 113 3.2 16.1 0.00 0.00 0.00 41 1012.1
20260509151930 22 82 3.2 12.9 0.00 0.00 0.00 40 1012.1
20260509151831 22 82 3.2 12.9 0.00 0.00 0.00 41 1012.1
20260509151801 22 76 3.2 12.9 0.00 0.00 0.00 41 1012.1
20260509151731 22 56 3.2 12.9 0.00 0.00 0.00 42 1012.1
20260509151631 22 9 3.2 12.9 0.00 0.00 0.00 42 1012.1
20260509151531 22 35 3.2 12.9 0.00 0.00 0.00 41 1012.3
20260509151431 22 59 3.2 12.9 0.00 0.00 0.00 42 1012.3
20260509151330 22 51 3.2 12.9 0.00 0.00 0.00 42 1012.1
20260509151301 22 323 3.2 12.9 0.00 0.00 0.00 43 1012.1
20260509151228 22 321 3.2 12.9 0.00 0.00 0.00 42 1012.3
20260509151129 22 108 1.6 12.9 0.00 0.00 0.00 41 1012.1
20260509151029 22 126 3.2 6.4 0.00 0.00 0.00 42 1012.1
20260509150929 22 155 3.2 6.4 0.00 0.00 0.00 40 1012.1
20260509150828 22 242 3.2 6.4 0.00 0.00 0.00 42 1012.3
20260509150801 22 242 3.2 6.4 0.00 0.00 0.00 40 1012.3
20260509150727 22 242 3.2 6.4 0.00 0.00 0.00 40 1012.1
20260509150627 22 236 3.2 6.4 0.00 0.00 0.00 40 1012.1
20260509150527 22 226 3.2 6.4 0.00 0.00 0.00 42 1012.1
20260509150427 22 226 3.2 6.4 0.00 0.00 0.00 40 1012.1
20260509150327 22 225 3.2 6.4 0.00 0.00 0.00 40 1012.1
20260509150301 22 225 3.2 6.4 0.00 0.00 0.00 41 1012.1
20260509150224 21 225 3.2 6.4 0.00 0.00 0.00 41 1012.1
20260509150123 21 225 3.2 8.0 0.00 0.00 0.00 42 1012.1
20260509150023 21 226 3.2 8.0 0.00 0.00 0.00 41 1012.3
20260509145921 21 222 3.2 9.7 0.00 0.00 0.00 41 1012.3
20260509145820 21 216 3.2 9.7 0.00 0.00 0.00 41 1012.3
20260509145800 21 215 3.2 9.7 0.00 0.00 0.00 41 1012.3
20260509145718 21 215 3.2 9.7 0.00 0.00 0.00 41 1012.4
20260509145616 21 236 3.2 9.7 0.00 0.00 0.00 40 1012.4
20260509145524 21 236 3.2 9.7 0.00 0.00 0.00 42 1012.4
20260509145516 21 236 3.2 9.7 0.00 0.00 0.00 43 1012.4
20260509145512 21 236 3.2 9.7 0.00 0.00 0.00 42 1012.4
20260509145208 21 236 3.2 9.7 0.00 0.00 0.00 43 1012.4
20260509145109 21 223 3.2 9.7 0.00 0.00 0.00 43 1012.4
20260509145025 21 190 3.2 12.9 0.00 0.00 0.00 40 1012.4
20260509145017 21 155 3.2 12.9 0.00 0.00 0.00 43 1012.4
20260509145013 21 155 4.8 12.9 0.00 0.00 0.00 42 1012.4
20260509144703 21 156 4.8 14.5 0.00 0.00 0.00 43 1012.4
20260509144603 21 140 4.8 14.5 0.00 0.00 0.00 40 1012.4
20260509144524 21 130 6.4 14.5 0.00 0.00 0.00 40 1012.3
20260509144516 21 130 6.4 14.5 0.00 0.00 0.00 41 1012.4
20260509144512 21 128 6.4 14.5 0.00 0.00 0.00 43 1012.4
20260509144201 21 128 4.8 14.5 0.00 0.00 0.00 40 1012.5
20260509144101 21 134 4.8 14.5 0.00 0.00 0.00 41 1012.4
20260509144001 21 137 4.8 14.5 0.00 0.00 0.00 41 1012.4
20260509143901 21 163 3.2 14.5 0.00 0.00 0.00 40 1012.5
20260509143801 22 132 3.2 14.5 0.00 0.00 0.00 41 1012.4
20260509143700 22 139 1.6 11.3 0.00 0.00 0.00 40 1012.4
20260509143601 22 103 1.6 11.3 0.00 0.00 0.00 41 1012.5
20260509143530 21 82 1.6 4.8 0.00 0.00 0.00 43 1012.5
20260509143501 22 74 1.6 4.8 0.00 0.00 0.00 41 1012.5
20260509143401 21 74 1.6 4.8 0.00 0.00 0.00 42 1012.5
20260509143330 21 81 1.6 8.0 0.00 0.00 0.00 41 1012.5
20260509143318 21 81 1.6 4.8 0.00 0.00 0.00 42 1012.5
20260509143314 21 82 1.6 4.8 0.00 0.00 0.00 43 1012.5
20260509143000 21 81 1.6 8.0 0.00 0.00 0.00 42 1012.6
20260509142901 21 82 3.2 12.9 0.00 0.00 0.00 43 1012.6
20260509142800 21 81 3.2 12.9 0.00 0.00 0.00 42 1012.6
20260509142748 21 97 3.2 12.9 0.00 0.00 0.00 44 1012.6
20260509142743 21 81 3.2 12.9 0.00 0.00 0.00 43 1012.6
20260509142739 21 81 3.2 12.9 0.00 0.00 0.00 44 1012.6
20260509142524 21 72 3.2 12.9 0.00 0.00 0.00 43 1012.6
20260509142516 21 75 3.2 12.9 0.00 0.00 0.00 43 1012.6
20260509142512 21 97 3.2 12.9 0.00 0.00 0.00 44 1012.6
20260509142200 21 97 3.2 12.9 0.00 0.00 0.00 43 1012.6
20260509142100 21 73 3.2 12.9 0.00 0.00 0.00 43 1012.6
20260509142001 21 67 1.6 12.9 0.00 0.00 0.00 43 1012.6
20260509141901 21 75 1.6 12.9 0.00 0.00 0.00 43 1012.6
20260509141801 21 55 1.6 4.8 0.00 0.00 0.00 43 1012.5
20260509141700 21 103 1.6 4.8 0.00 0.00 0.00 44 1012.6
20260509141600 21 95 1.6 4.8 0.00 0.00 0.00 42 1012.6
20260509141500 21 108 1.6 4.8 0.00 0.00 0.00 42 1012.6
20260509141400 22 109 1.6 4.8 0.00 0.00 0.00 41 1012.6
20260509141301 22 109 1.6 4.8 0.00 0.00 0.00 41 1012.6
20260509141201 22 109 1.6 4.8 0.00 0.00 0.00 42 1012.6
20260509141100 22 109 1.6 6.4 0.00 0.00 0.00 42 1012.6
20260509141002 22 109 1.6 6.4 0.00 0.00 0.00 43 1012.6
20260509140901 22 70 1.6 6.4 0.00 0.00 0.00 43 1012.7
20260509140801 22 71 3.2 9.7 0.00 0.00 0.00 42 1012.7
20260509140701 22 71 3.2 9.7 0.00 0.00 0.00 42 1012.7
20260509140601 21 71 3.2 9.7 0.00 0.00 0.00 42 1012.7
20260509140501 21 71 3.2 9.7 0.00 0.00 0.00 43 1012.7
20260509140401 21 77 3.2 9.7 0.00 0.00 0.00 44 1012.7
20260509140301 21 77 3.2 9.7 0.00 0.00 0.00 43 1012.7
20260509140201 21 80 3.2 9.7 0.00 0.00 0.00 44 1012.8
20260509140001 21 42 3.2 9.7 0.00 0.00 0.00 44 1012.8
20260509135901 21 42 3.2 9.7 0.00 0.00 0.00 46 1012.8
20260509135801 21 46 3.2 9.7 0.00 0.00 0.00 47 1012.8
20260509135701 21 34 3.2 9.7 0.00 0.00 0.00 48 1012.8
20260509135601 21 86 3.2 9.7 0.00 0.00 0.00 49 1012.8
20260509135501 21 82 3.2 9.7 0.00 0.00 0.00 49 1012.8
20260509135401 21 67 3.2 11.3 0.00 0.00 0.00 46 1012.8
20260509135300 21 98 3.2 11.3 0.00 0.00 0.00 45 1012.8
20260509135200 21 99 3.2 11.3 0.00 0.00 0.00 45 1012.9
20260509135100 21 68 4.8 11.3 0.00 0.00 0.00 46 1012.8
20260509135000 21 75 4.8 11.3 0.00 0.00 0.00 47 1012.8
20260509134900 21 120 4.8 11.3 0.00 0.00 0.00 46 1012.8
20260509134801 21 117 4.8 11.3 0.00 0.00 0.00 46 1012.9
20260509134701 21 90 4.8 11.3 0.00 0.00 0.00 45 1012.9
20260509134601 21 90 4.8 11.3 0.00 0.00 0.00 45 1012.9
20260509134500 21 82 4.8 11.3 0.00 0.00 0.00 44 1012.9
20260509134400 21 109 4.8 12.9 0.00 0.00 0.00 44 1012.9
20260509134300 21 76 4.8 12.9 0.00 0.00 0.00 45 1012.9
20260509134200 21 67 4.8 12.9 0.00 0.00 0.00 44 1012.9
20260509134101 21 87 4.8 12.9 0.00 0.00 0.00 44 1012.9
20260509134001 21 107 4.8 12.9 0.00 0.00 0.00 43 1013.0
20260509133900 21 101 3.2 12.9 0.00 0.00 0.00 43 1013.0
20260509133800 21 84 3.2 12.9 0.00 0.00 0.00 44 1013.0
20260509133701 22 84 3.2 14.5 0.00 0.00 0.00 44 1013.0
20260509133601 22 116 3.2 14.5 0.00 0.00 0.00 44 1013.0
20260509133501 22 82 3.2 14.5 0.00 0.00 0.00 43 1012.9
20260509133406 22 71 3.2 14.5 0.00 0.00 0.00 43 1013.0
20260509133301 22 98 3.2 14.5 0.00 0.00 0.00 44 1013.0
20260509133201 22 82 3.2 14.5 0.00 0.00 0.00 43 1013.0
20260509133101 22 86 4.8 14.5 0.00 0.00 0.00 43 1012.9
20260509133001 22 92 4.8 14.5 0.00 0.00 0.00 42 1013.0
20260509132903 22 104 4.8 14.5 0.00 0.00 0.00 40 1013.0
20260509132801 22 115 4.8 14.5 0.00 0.00 0.00 40 1013.0
20260509132701 23 153 4.8 14.5 0.00 0.00 0.00 40 1013.0
20260509132601 23 76 4.8 14.5 0.00 0.00 0.00 40 1013.0
20260509132500 23 78 4.8 14.5 0.00 0.00 0.00 40 1013.1
20260509132401 23 108 4.8 14.5 0.00 0.00 0.00 41 1013.1
20260509132300 23 88 4.8 14.5 0.00 0.00 0.00 40 1013.1
20260509132200 23 107 4.8 14.5 0.00 0.00 0.00 41 1013.1
20260509132101 23 74 4.8 14.5 0.00 0.00 0.00 40 1013.1
20260509132001 23 27 4.8 14.5 0.00 0.00 0.00 40 1013.1
20260509131901 23 355 4.8 14.5 0.00 0.00 0.00 39 1013.1
20260509131801 23 77 4.8 14.5 0.00 0.00 0.00 41 1013.0
20260509131701 22 88 4.8 14.5 0.00 0.00 0.00 41 1013.1
20260509131601 22 105 4.8 14.5 0.00 0.00 0.00 41 1013.1
20260509131501 22 71 4.8 14.5 0.00 0.00 0.00 42 1013.1
20260509131401 22 97 4.8 14.5 0.00 0.00 0.00 43 1013.1
20260509131302 22 59 4.8 14.5 0.00 0.00 0.00 44 1013.1
20260509131200 22 59 4.8 14.5 0.00 0.00 0.00 42 1013.1
20260509131101 22 55 3.2 12.9 0.00 0.00 0.00 42 1013.1
20260509131001 22 74 3.2 12.9 0.00 0.00 0.00 44 1013.1
20260509130900 22 84 3.2 12.9 0.00 0.00 0.00 43 1013.2
20260509130800 22 94 3.2 12.9 0.00 0.00 0.00 45 1013.1
20260509130700 22 76 3.2 12.9 0.00 0.00 0.00 44 1013.2
20260509130601 21 113 1.6 8.0 0.00 0.00 0.00 43 1013.2
20260509130501 21 117 1.6 8.0 0.00 0.00 0.00 44 1013.2
20260509130401 21 233 1.6 8.0 0.00 0.00 0.00 43 1013.2
20260509130301 21 236 1.6 8.0 0.00 0.00 0.00 44 1013.2
20260509130200 21 336 1.6 6.4 0.00 0.00 0.00 45 1013.2
20260509130100 21 336 1.6 6.4 0.00 0.00 0.00 44 1013.2
20260509130000 21 336 3.2 6.4 0.00 0.00 0.00 46 1013.3
20260509125900 21 336 3.2 6.4 0.00 0.00 0.00 45 1013.3
20260509125801 21 336 3.2 8.0 0.00 0.00 0.00 46 1013.2
20260509125700 21 336 3.2 8.0 0.00 0.00 0.00 44 1013.3
20260509125600 21 346 3.2 8.0 0.00 0.00 0.00 43 1013.3
20260509125500 21 225 4.8 11.3 0.00 0.00 0.00 43 1013.3
20260509125400 21 222 4.8 11.3 0.00 0.00 0.00 43 1013.3
20260509125300 21 222 4.8 14.5 0.00 0.00 0.00 43 1013.3
20260509125200 21 198 6.4 17.7 0.00 0.00 0.00 43 1013.3
20260509125100 21 198 6.4 17.7 0.00 0.00 0.00 41 1013.3
20260509125025 21 194 6.4 17.7 0.00 0.00 0.00 45 1013.4
20260509125021 21 180 8.0 17.7 0.00 0.00 0.00 43 1013.4
20260509125012 21 150 8.0 17.7 0.00 0.00 0.00 44 1013.4
20260509124701 21 139 8.0 17.7 0.00 0.00 0.00 42 1013.4
20260509124602 21 129 6.4 17.7 0.00 0.00 0.00 42 1013.4
20260509124502 21 121 6.4 17.7 0.00 0.00 0.00 43 1013.4
20260509124401 21 117 6.4 17.7 0.00 0.00 0.00 44 1013.4
20260509124301 21 140 4.8 17.7 0.00 0.00 0.00 44 1013.4
20260509124201 21 111 4.8 14.5 0.00 0.00 0.00 44 1013.4
20260509124101 21 133 4.8 14.5 0.00 0.00 0.00 45 1013.4
20260509124001 21 178 4.8 14.5 0.00 0.00 0.00 45 1013.4
20260509123901 21 159 4.8 12.9 0.00 0.00 0.00 45 1013.4
20260509123801 21 140 4.8 12.9 0.00 0.00 0.00 46 1013.4
20260509123701 21 146 4.8 12.9 0.00 0.00 0.00 46 1013.5
20260509123601 21 139 4.8 12.9 0.00 0.00 0.00 46 1013.5
20260509123501 21 139 4.8 12.9 0.00 0.00 0.00 44 1013.5
20260509123401 21 139 6.4 12.9 0.00 0.00 0.00 44 1013.5
20260509123300 21 139 6.4 12.9 0.00 0.00 0.00 44 1013.5
20260509123200 21 100 6.4 12.9 0.00 0.00 0.00 43 1013.5
20260509123101 21 142 6.4 12.9 0.00 0.00 0.00 44 1013.5
20260509123001 21 168 6.4 12.9 0.00 0.00 0.00 44 1013.5
20260509122901 21 156 4.8 14.5 0.00 0.00 0.00 45 1013.6
20260509122800 21 202 4.8 14.5 0.00 0.00 0.00 44 1013.5
20260509122700 21 118 4.8 14.5 0.00 0.00 0.00 44 1013.6
20260509122600 21 119 4.8 14.5 0.00 0.00 0.00 46 1013.5
20260509122458 21 159 4.8 14.5 0.00 0.00 0.00 44 1013.6
20260509122358 21 92 4.8 19.3 0.00 0.00 0.00 44 1013.6
20260509122305 21 150 4.8 19.3 0.00 0.00 0.00 45 1013.6
20260509122258 21 150 4.8 19.3 0.00 0.00 0.00 45 1013.6
20260509122158 21 106 4.8 19.3 0.00 0.00 0.00 45 1013.6
20260509122058 21 98 4.8 19.3 0.00 0.00 0.00 47 1013.6
20260509122026 21 334 4.8 19.3 0.00 0.00 0.00 48 1013.5
20260509122020 21 80 4.8 19.3 0.00 0.00 0.00 47 1013.6
20260509122016 21 47 4.8 19.3 0.00 0.00 0.00 47 1013.5
20260509121753 21 334 4.8 19.3 0.00 0.00 0.00 48 1013.6
20260509121653 21 322 4.8 19.3 0.00 0.00 0.00 48 1013.6
20260509121551 21 321 4.8 19.3 0.00 0.00 0.00 50 1013.6
20260509121527 21 86 3.2 9.7 0.00 0.00 0.00 49 1013.6
20260509121521 21 25 3.2 19.3 0.00 0.00 0.00 49 1013.7
20260509121517 21 48 3.2 16.1 0.00 0.00 0.00 48 1013.6
20260509121246 21 5 3.2 9.7 0.00 0.00 0.00 49 1013.6
20260509121146 20 91 3.2 9.7 0.00 0.00 0.00 47 1013.6
20260509121048 20 87 3.2 9.7 0.00 0.00 0.00 46 1013.6
20260509120943 20 55 3.2 11.3 0.00 0.00 0.00 47 1013.7
20260509120841 20 55 3.2 11.3 0.00 0.00 0.00 48 1013.7
20260509120802 20 55 3.2 11.3 0.00 0.00 0.00 48 1013.7
20260509120740 20 55 3.2 11.3 0.00 0.00 0.00 49 1013.7
20260509120640 20 105 3.2 11.3 0.00 0.00 0.00 47 1013.7
20260509120540 20 345 3.2 11.3 0.00 0.00 0.00 46 1013.8
20260509120434 20 65 3.2 11.3 0.00 0.00 0.00 47 1013.8
20260509120335 20 71 3.2 11.3 0.00 0.00 0.00 47 1013.8
20260509120300 20 70 3.2 11.3 0.00 0.00 0.00 47 1013.8
20260509120234 20 103 3.2 11.3 0.00 0.00 0.00 48 1013.8
20260509120134 20 109 3.2 11.3 0.00 0.00 0.00 48 1013.7
20260509120034 20 66 3.2 11.3 0.00 0.00 0.00 47 1013.8
20260509115935 20 136 3.2 11.3 0.00 0.00 0.00 47 1013.8
20260509115835 20 93 3.2 11.3 0.00 0.00 0.00 47 1013.8
20260509115801 20 65 3.2 11.3 0.00 0.00 0.00 46 1013.8
20260509115735 20 84 3.2 11.3 0.00 0.00 0.00 47 1013.8
20260509115635 20 111 3.2 11.3 0.00 0.00 0.00 46 1013.8
20260509115534 20 107 3.2 11.3 0.00 0.00 0.00 47 1013.8
20260509115432 20 86 3.2 11.3 0.00 0.00 0.00 48 1013.8
20260509115332 20 87 3.2 11.3 0.00 0.00 0.00 48 1013.8
20260509115301 20 76 3.2 11.3 0.00 0.00 0.00 47 1013.8
20260509115232 20 62 3.2 11.3 0.00 0.00 0.00 47 1013.8
20260509115132 20 86 3.2 9.7 0.00 0.00 0.00 48 1013.8
20260509115033 20 94 3.2 12.9 0.00 0.00 0.00 47 1013.8
20260509114931 20 95 3.2 12.9 0.00 0.00 0.00 48 1013.9
20260509114830 20 32 3.2 12.9 0.00 0.00 0.00 47 1013.8
20260509114800 20 31 3.2 12.9 0.00 0.00 0.00 49 1013.8
20260509114730 20 18 3.2 12.9 0.00 0.00 0.00 49 1013.9
20260509114630 20 111 3.2 12.9 0.00 0.00 0.00 49 1013.9
20260509114530 20 78 3.2 12.9 0.00 0.00 0.00 49 1013.9
20260509114430 20 107 3.2 12.9 0.00 0.00 0.00 49 1013.9
20260509114301 20 17 3.2 12.9 0.00 0.00 0.00 48 1013.9
20260509114229 20 17 3.2 12.9 0.00 0.00 0.00 48 1013.9
20260509114129 20 17 3.2 12.9 0.00 0.00 0.00 49 1013.9
20260509114029 20 17 3.2 11.3 0.00 0.00 0.00 48 1013.9
20260509113929 20 72 3.2 11.3 0.00 0.00 0.00 47 1013.9
20260509113829 20 91 3.2 11.3 0.00 0.00 0.00 47 1013.9
20260509113803 20 96 3.2 11.3 0.00 0.00 0.00 48 1013.9
20260509113729 20 19 3.2 11.3 0.00 0.00 0.00 48 1013.9
20260509113629 20 70 3.2 11.3 0.00 0.00 0.00 48 1014.1
20260509113529 20 95 3.2 11.3 0.00 0.00 0.00 48 1014.1
20260509113429 20 102 3.2 11.3 0.00 0.00 0.00 48 1014.1
20260509113329 20 100 3.2 11.3 0.00 0.00 0.00 48 1014.1
20260509113300 20 86 3.2 11.3 0.00 0.00 0.00 48 1014.1
20260509113229 20 182 3.2 11.3 0.00 0.00 0.00 48 1014.1
20260509113129 20 107 3.2 11.3 0.00 0.00 0.00 47 1014.1
20260509113029 20 111 3.2 11.3 0.00 0.00 0.00 47 1014.1
20260509112928 20 103 3.2 11.3 0.00 0.00 0.00 48 1014.1
20260509112828 20 107 3.2 11.3 0.00 0.00 0.00 48 1014.1
20260509112800 20 124 3.2 11.3 0.00 0.00 0.00 48 1014.1
20260509112729 20 173 3.2 9.7 0.00 0.00 0.00 47 1014.1
20260509112629 20 71 3.2 9.7 0.00 0.00 0.00 47 1014.1
20260509112527 20 71 3.2 12.9 0.00 0.00 0.00 47 1014.2
20260509112427 20 67 3.2 12.9 0.00 0.00 0.00 47 1014.1
20260509112326 20 80 3.2 12.9 0.00 0.00 0.00 47 1014.1
20260509112307 20 79 3.2 12.9 0.00 0.00 0.00 47 1014.1
20260509112226 20 105 3.2 12.9 0.00 0.00 0.00 49 1014.1
20260509112124 20 103 3.2 12.9 0.00 0.00 0.00 46 1014.2
20260509112028 20 96 3.2 12.9 0.00 0.00 0.00 49 1014.2
20260509112024 20 76 3.2 12.9 0.00 0.00 0.00 49 1014.2
20260509112019 20 100 3.2 12.9 0.00 0.00 0.00 47 1014.2
20260509112015 20 82 3.2 12.9 0.00 0.00 0.00 49 1014.2
20260509111718 20 83 3.2 12.9 0.00 0.00 0.00 49 1014.2
20260509111618 20 84 3.2 12.9 0.00 0.00 0.00 50 1014.2
20260509111512 20 92 3.2 12.9 0.00 0.00 0.00 48 1014.2
20260509111412 20 65 3.2 12.9 0.00 0.00 0.00 48 1014.2
20260509111313 20 98 3.2 12.9 0.00 0.00 0.00 47 1014.2
20260509111301 20 114 3.2 12.9 0.00 0.00 0.00 47 1014.2
20260509111212 20 92 3.2 12.9 0.00 0.00 0.00 49 1014.2
20260509111111 20 76 3.2 11.3 0.00 0.00 0.00 49 1014.3
20260509111006 20 87 1.6 11.3 0.00 0.00 0.00 49 1014.2
20260509110906 20 121 1.6 6.4 0.00 0.00 0.00 49 1014.3
20260509110807 20 100 1.6 6.4 0.00 0.00 0.00 48 1014.2
20260509110803 20 98 1.6 6.4 0.00 0.00 0.00 48 1014.2
20260509110706 20 99 1.6 6.4 0.00 0.00 0.00 47 1014.3
20260509110606 20 71 3.2 16.1 0.00 0.00 0.00 47 1014.3
20260509110505 20 143 3.2 16.1 0.00 0.00 0.00 46 1014.3
20260509110404 20 96 3.2 16.1 0.00 0.00 0.00 48 1014.3
20260509110301 20 97 3.2 16.1 0.00 0.00 0.00 47 1014.3
20260509110204 20 103 3.2 16.1 0.00 0.00 0.00 45 1014.3
20260509110104 20 104 3.2 16.1 0.00 0.00 0.00 45 1014.3
20260509110004 20 104 3.2 16.1 0.00 0.00 0.00 45 1014.4
20260509105905 20 97 3.2 16.1 0.00 0.00 0.00 46 1014.3
20260509105802 20 139 3.2 16.1 0.00 0.00 0.00 44 1014.4
20260509105704 20 125 3.2 16.1 0.00 0.00 0.00 47 1014.4
20260509105604 20 123 3.2 12.9 0.00 0.00 0.00 47 1014.4
20260509105504 20 52 3.2 12.9 0.00 0.00 0.00 46 1014.4
20260509105404 20 51 4.8 14.5 0.00 0.00 0.00 46 1014.4
20260509105305 20 53 4.8 14.5 0.00 0.00 0.00 46 1014.4
20260509105202 20 95 4.8 14.5 0.00 0.00 0.00 48 1014.4
20260509105102 20 96 6.4 14.5 0.00 0.00 0.00 47 1014.4
20260509105001 20 118 6.4 16.1 0.00 0.00 0.00 47 1014.4
20260509104901 20 117 6.4 16.1 0.00 0.00 0.00 48 1014.4
20260509104804 20 82 8.0 17.7 0.00 0.00 0.00 47 1014.4
20260509104800 20 82 8.0 17.7 0.00 0.00 0.00 47 1014.4
20260509104700 20 109 9.7 17.7 0.00 0.00 0.00 49 1014.5
20260509104600 20 112 9.7 17.7 0.00 0.00 0.00 48 1014.5
20260509104500 20 123 9.7 17.7 0.00 0.00 0.00 47 1014.5
20260509104359 20 105 8.0 17.7 0.00 0.00 0.00 47 1014.5
20260509104301 20 142 8.0 17.7 0.00 0.00 0.00 48 1014.5
20260509104254 20 140 8.0 17.7 0.00 0.00 0.00 48 1014.5
20260509104154 20 148 8.0 17.7 0.00 0.00 0.00 47 1014.5
20260509104054 20 133 8.0 17.7 0.00 0.00 0.00 46 1014.5
20260509103954 20 150 6.4 17.7 0.00 0.00 0.00 48 1014.5
20260509103854 19 134 4.8 17.7 0.00 0.00 0.00 48 1014.6
20260509103801 19 132 4.8 17.7 0.00 0.00 0.00 49 1014.6
20260509103750 19 136 3.2 17.7 0.00 0.00 0.00 49 1014.6
20260509103650 19 124 3.2 14.5 0.00 0.00 0.00 49 1014.6
20260509103550 19 146 3.2 12.9 0.00 0.00 0.00 48 1014.6
20260509103450 19 124 3.2 12.9 0.00 0.00 0.00 46 1014.7
20260509103347 19 96 3.2 12.9 0.00 0.00 0.00 48 1014.7
20260509103301 19 96 3.2 12.9 0.00 0.00 0.00 47 1014.7
20260509103244 19 96 3.2 12.9 0.00 0.00 0.00 47 1014.7
20260509103142 19 96 3.2 12.9 0.00 0.00 0.00 46 1014.7
20260509103042 19 91 4.8 12.9 0.00 0.00 0.00 47 1014.7
20260509102942 19 91 4.8 12.9 0.00 0.00 0.00 47 1014.7
20260509102842 19 92 4.8 12.9 0.00 0.00 0.00 48 1014.7
20260509102800 19 84 4.8 12.9 0.00 0.00 0.00 47 1014.7
20260509102736 19 141 4.8 14.5 0.00 0.00 0.00 47 1014.7
20260509102636 19 71 4.8 14.5 0.00 0.00 0.00 48 1014.7
20260509102536 19 61 4.8 14.5 0.00 0.00 0.00 47 1014.8
20260509102436 19 144 4.8 14.5 0.00 0.00 0.00 47 1014.7
20260509102335 19 147 4.8 14.5 0.00 0.00 0.00 48 1014.8
20260509102301 19 109 4.8 14.5 0.00 0.00 0.00 48 1014.8
20260509102234 19 57 4.8 14.5 0.00 0.00 0.00 47 1014.8
20260509102130 19 95 4.8 14.5 0.00 0.00 0.00 49 1014.8
20260509102030 19 146 3.2 14.5 0.00 0.00 0.00 48 1014.8
20260509101930 19 94 3.2 14.5 0.00 0.00 0.00 47 1014.8
20260509101830 19 109 3.2 14.5 0.00 0.00 0.00 46 1014.8
20260509101801 19 59 3.2 14.5 0.00 0.00 0.00 46 1014.8
20260509101728 19 65 1.6 14.5 0.00 0.00 0.00 48 1014.8
20260509101628 19 135 1.6 14.5 0.00 0.00 0.00 48 1014.8
20260509101526 19 131 3.2 9.7 0.00 0.00 0.00 50 1014.8
20260509101426 19 109 3.2 11.3 0.00 0.00 0.00 50 1014.8
20260509101324 19 115 3.2 11.3 0.00 0.00 0.00 51 1014.8
20260509101302 19 107 3.2 11.3 0.00 0.00 0.00 51 1014.8
20260509101218 19 74 3.2 11.3 0.00 0.00 0.00 50 1014.8
20260509101118 19 82 3.2 11.3 0.00 0.00 0.00 48 1014.8
20260509101018 19 69 3.2 11.3 0.00 0.00 0.00 50 1014.8
20260509100918 19 105 3.2 11.3 0.00 0.00 0.00 49 1014.9
20260509100818 19 107 3.2 11.3 0.00 0.00 0.00 50 1014.9
20260509100801 19 108 3.2 11.3 0.00 0.00 0.00 50 1014.9
20260509100714 19 108 3.2 11.3 0.00 0.00 0.00 49 1014.9
20260509100612 19 99 3.2 11.3 0.00 0.00 0.00 52 1014.9
20260509100512 18 116 3.2 9.7 0.00 0.00 0.00 50 1015.0
20260509100412 18 140 3.2 9.7 0.00 0.00 0.00 51 1014.9
20260509100300 18 180 3.2 9.7 0.00 0.00 0.00 50 1014.9
20260509100207 18 198 3.2 9.7 0.00 0.00 0.00 51 1014.9